Wetterdaten: Sonntag, 29.03.2015
Datum Zeit Temp. Aussen +5cm Feuchte Auss Luftdruck Regen Sonnenschein Regendauer Solar Windben
29.03.2015 00:00 11,3 C 9,4 C 97 % 1007,5 hPa 0,0 l/m 0 min 0 min 0 W/m 29,3 km/h (5 Bft)
29.03.2015 00:02 11,3 C 9,4 C 97 % 1007,5 hPa 0,0 l/m 0 min 0 min 0 W/m 37,7 km/h (5 Bft)
29.03.2015 00:06 11,3 C 9,4 C 97 % 1007,3 hPa 0,0 l/m 0 min 0 min 0 W/m 37,7 km/h (5 Bft)
29.03.2015 00:08 11,3 C 9,4 C 97 % 1007,1 hPa 0,0 l/m 0 min 0 min 0 W/m 23,0 km/h (4 Bft)
29.03.2015 00:10 11,3 C 9,4 C 97 % 1007,2 hPa 0,0 l/m 0 min 0 min 0 W/m 29,3 km/h (5 Bft)
29.03.2015 00:12 11,3 C 9,4 C 97 % 1007,2 hPa 0,0 l/m 0 min 0 min 0 W/m 33,5 km/h (5 Bft)
29.03.2015 00:14 11,3 C 9,4 C 97 % 1007,2 hPa 0,0 l/m 0 min 0 min 0 W/m 29,3 km/h (5 Bft)
29.03.2015 00:16 11,3 C 9,4 C 97 % 1007,2 hPa 0,0 l/m 0 min 0 min 0 W/m 25,1 km/h (4 Bft)
29.03.2015 00:18 11,3 C 9,4 C 97 % 1007,2 hPa 0,0 l/m 0 min 0 min 0 W/m 31,4 km/h (5 Bft)
29.03.2015 00:20 11,3 C 9,4 C 97 % 1007,1 hPa 0,0 l/m 0 min 0 min 0 W/m 27,2 km/h (4 Bft)
29.03.2015 00:22 11,3 C 9,4 C 97 % 1007,1 hPa 0,0 l/m 0 min 0 min 0 W/m 33,5 km/h (5 Bft)
29.03.2015 00:24 11,3 C 9,4 C 97 % 1007,1 hPa 0,0 l/m 0 min 0 min 0 W/m 35,6 km/h (5 Bft)
29.03.2015 00:26 11,4 C 9,4 C 97 % 1007,0 hPa 0,0 l/m 0 min 0 min 0 W/m 35,6 km/h (5 Bft)
29.03.2015 00:28 11,4 C 9,4 C 97 % 1007,0 hPa 0,0 l/m 0 min 0 min 0 W/m 33,5 km/h (5 Bft)
29.03.2015 00:30 11,4 C 9,4 C 97 % 1007,0 hPa 0,0 l/m 0 min 0 min 0 W/m 25,1 km/h (4 Bft)
29.03.2015 00:32 11,4 C 9,4 C 97 % 1006,9 hPa 0,0 l/m 0 min 0 min 0 W/m 29,3 km/h (5 Bft)
29.03.2015 00:34 11,3 C 9,4 C 97 % 1006,9 hPa 0,0 l/m 0 min 0 min 0 W/m 41,8 km/h (6 Bft)
29.03.2015 00:36 11,3 C 9,4 C 97 % 1006,9 hPa 0,0 l/m 0 min 0 min 0 W/m 31,4 km/h (5 Bft)
29.03.2015 00:38 11,3 C 9,4 C 97 % 1006,8 hPa 0,0 l/m 0 min 0 min 0 W/m 35,6 km/h (5 Bft)
29.03.2015 00:40 11,3 C 9,4 C 97 % 1006,8 hPa 0,0 l/m 0 min 0 min 0 W/m 25,1 km/h (4 Bft)
29.03.2015 00:42 11,3 C 9,4 C 97 % 1006,8 hPa 0,0 l/m 0 min 0 min 0 W/m 35,6 km/h (5 Bft)
29.03.2015 00:44 11,3 C 9,4 C 97 % 1006,6 hPa 0,0 l/m 0 min 0 min 0 W/m 31,4 km/h (5 Bft)
29.03.2015 00:46 11,3 C 9,4 C 97 % 1006,6 hPa 0,0 l/m 0 min 0 min 0 W/m 39,7 km/h (6 Bft)
29.03.2015 00:48 11,3 C 9,4 C 97 % 1006,6 hPa 0,0 l/m 0 min 0 min 0 W/m 48,1 km/h (6 Bft)
29.03.2015 00:50 11,2 C 9,4 C 97 % 1006,6 hPa 0,0 l/m 0 min 0 min 0 W/m 50,2 km/h (7 Bft)
29.03.2015 00:52 11,2 C 9,4 C 96 % 1006,6 hPa 0,0 l/m 0 min 0 min 0 W/m 39,7 km/h (6 Bft)
29.03.2015 00:54 11,2 C 9,4 C 96 % 1006,6 hPa 0,0 l/m 0 min 0 min 0 W/m 52,3 km/h (7 Bft)
29.03.2015 00:56 11,2 C 9,4 C 96 % 1006,6 hPa 0,0 l/m 0 min 0 min 0 W/m 39,7 km/h (6 Bft)
29.03.2015 00:58 11,2 C 8,9 C 96 % 1006,6 hPa 0,0 l/m 0 min 0 min 0 W/m 41,8 km/h (6 Bft)
29.03.2015 01:00 11,1 C 8,9 C 96 % 1006,6 hPa 0,0 l/m 0 min 0 min 0 W/m 41,8 km/h (6 Bft)
29.03.2015 01:02 11,1 C 8,9 C 96 % 1006,7 hPa 0,0 l/m 0 min 0 min 0 W/m 48,1 km/h (6 Bft)
29.03.2015 01:04 11,1 C 8,9 C 95 % 1006,6 hPa 0,0 l/m 0 min 0 min 0 W/m 41,8 km/h (6 Bft)
29.03.2015 01:06 11,1 C 8,9 C 95 % 1006,5 hPa 0,0 l/m 0 min 0 min 0 W/m 39,7 km/h (6 Bft)
29.03.2015 01:08 11,1 C 8,9 C 95 % 1006,5 hPa 0,0 l/m 0 min 0 min 0 W/m 46,0 km/h (6 Bft)
29.03.2015 01:10 11,0 C 8,9 C 95 % 1006,6 hPa 0,0 l/m 0 min 0 min 0 W/m 43,9 km/h (6 Bft)
29.03.2015 01:12 11,0 C 8,9 C 94 % 1006,4 hPa 0,0 l/m 0 min 2 min 0 W/m 50,2 km/h (7 Bft)
29.03.2015 01:14 11,0 C 8,9 C 94 % 1006,6 hPa 0,0 l/m 0 min 0 min 0 W/m 41,8 km/h (6 Bft)
29.03.2015 01:16 11,0 C 8,9 C 94 % 1006,7 hPa 0,0 l/m 0 min 0 min 0 W/m 35,6 km/h (5 Bft)
29.03.2015 01:18 10,9 C 8,9 C 93 % 1006,6 hPa 0,0 l/m 0 min 0 min 0 W/m 43,9 km/h (6 Bft)
29.03.2015 01:20 10,9 C 8,9 C 93 % 1006,7 hPa 0,0 l/m 0 min 0 min 0 W/m 43,9 km/h (6 Bft)
29.03.2015 01:22 10,9 C 8,3 C 92 % 1006,7 hPa 0,0 l/m 0 min 0 min 0 W/m 43,9 km/h (6 Bft)
29.03.2015 01:24 10,9 C 8,3 C 92 % 1006,6 hPa 0,0 l/m 0 min 0 min 0 W/m 43,9 km/h (6 Bft)
29.03.2015 01:26 10,9 C 8,3 C 92 % 1006,6 hPa 0,0 l/m 0 min 0 min 0 W/m 35,6 km/h (5 Bft)
29.03.2015 01:28 10,9 C 8,3 C 92 % 1006,5 hPa 0,0 l/m 0 min 0 min 0 W/m 43,9 km/h (6 Bft)
29.03.2015 01:30 10,8 C 8,3 C 91 % 1006,5 hPa 0,0 l/m 0 min 0 min 0 W/m 35,6 km/h (5 Bft)
29.03.2015 01:32 10,8 C 8,3 C 91 % 1006,6 hPa 0,0 l/m 0 min 0 min 0 W/m 31,4 km/h (5 Bft)
29.03.2015 01:34 10,8 C 8,3 C 91 % 1006,6 hPa 0,0 l/m 0 min 0 min 0 W/m 41,8 km/h (6 Bft)
29.03.2015 01:36 10,8 C 8,3 C 90 % 1006,6 hPa 0,0 l/m 0 min 0 min 0 W/m 27,2 km/h (4 Bft)
29.03.2015 01:38 10,8 C 8,3 C 90 % 1006,8 hPa 0,0 l/m 0 min 0 min 0 W/m 35,6 km/h (5 Bft)
29.03.2015 01:40 10,8 C 8,3 C 90 % 1006,8 hPa 0,0 l/m 0 min 0 min 0 W/m 31,4 km/h (5 Bft)
29.03.2015 01:42 10,8 C 8,3 C 90 % 1006,9 hPa 0,0 l/m 0 min 2 min 0 W/m 43,9 km/h (6 Bft)
29.03.2015 01:44 10,8 C 8,3 C 89 % 1006,9 hPa 0,0 l/m 0 min 0 min 0 W/m 25,1 km/h (4 Bft)
29.03.2015 01:46 10,8 C 8,3 C 89 % 1006,9 hPa 0,0 l/m 0 min 0 min 0 W/m 27,2 km/h (4 Bft)
29.03.2015 01:48 10,8 C 8,9 C 89 % 1006,9 hPa 0,0 l/m 0 min 0 min 0 W/m 31,4 km/h (5 Bft)
29.03.2015 01:50 10,8 C 8,9 C 89 % 1007,0 hPa 0,0 l/m 0 min 0 min 0 W/m 31,4 km/h (5 Bft)
29.03.2015 01:52 10,8 C 8,9 C 89 % 1006,9 hPa 0,0 l/m 0 min 0 min 0 W/m 37,7 km/h (5 Bft)
29.03.2015 01:54 10,8 C 8,9 C 89 % 1006,8 hPa 0,0 l/m 0 min 0 min 0 W/m 31,4 km/h (5 Bft)
29.03.2015 01:56 10,8 C 8,9 C 89 % 1006,7 hPa 0,0 l/m 0 min 0 min 0 W/m 37,7 km/h (5 Bft)
29.03.2015 01:58 10,9 C 8,9 C 89 % 1006,6 hPa 0,0 l/m 0 min 0 min 0 W/m 35,6 km/h (5 Bft)
29.03.2015 03:00 10,9 C 8,9 C 89 % 1006,7 hPa 0,0 l/m 0 min 0 min 0 W/m 41,8 km/h (6 Bft)
29.03.2015 03:02 10,9 C 8,9 C 89 % 1006,5 hPa 0,0 l/m 0 min 0 min 0 W/m 37,7 km/h (5 Bft)
29.03.2015 03:04 10,9 C 8,9 C 89 % 1006,8 hPa 0,0 l/m 0 min 0 min 0 W/m 23,0 km/h (4 Bft)
29.03.2015 03:06 10,9 C 8,9 C 88 % 1006,7 hPa 0,0 l/m 0 min 0 min 0 W/m 37,7 km/h (5 Bft)
29.03.2015 03:08 10,9 C 8,9 C 88 % 1006,6 hPa 0,0 l/m 0 min 0 min 0 W/m 37,7 km/h (5 Bft)
29.03.2015 03:10 10,9 C 8,9 C 88 % 1006,5 hPa 0,0 l/m 0 min 0 min 0 W/m 33,5 km/h (5 Bft)
29.03.2015 03:12 10,9 C 8,9 C 88 % 1006,6 hPa 0,0 l/m 0 min 0 min 0 W/m 37,7 km/h (5 Bft)
29.03.2015 03:14 10,9 C 8,9 C 88 % 1006,6 hPa 0,0 l/m 0 min 0 min 0 W/m 33,5 km/h (5 Bft)
29.03.2015 03:16 10,9 C 8,9 C 88 % 1006,5 hPa 0,0 l/m 0 min 0 min 0 W/m 35,6 km/h (5 Bft)
29.03.2015 03:18 10,9 C 8,9 C 88 % 1006,4 hPa 0,0 l/m 0 min 0 min 0 W/m 35,6 km/h (5 Bft)
29.03.2015 03:20 10,9 C 8,9 C 88 % 1006,5 hPa 0,0 l/m 0 min 2 min 0 W/m 46,0 km/h (6 Bft)
29.03.2015 03:22 10,9 C 8,9 C 87 % 1006,4 hPa 0,0 l/m 0 min 0 min 0 W/m 35,6 km/h (5 Bft)
29.03.2015 03:24 10,9 C 8,9 C 87 % 1006,5 hPa 0,0 l/m 0 min 2 min 0 W/m 41,8 km/h (6 Bft)
29.03.2015 03:26 10,9 C 8,9 C 87 % 1006,5 hPa 0,0 l/m 0 min 2 min 0 W/m 43,9 km/h (6 Bft)
29.03.2015 03:28 10,9 C 8,9 C 87 % 1006,3 hPa 0,0 l/m 0 min 0 min 0 W/m 37,7 km/h (5 Bft)
29.03.2015 03:30 10,9 C 8,9 C 87 % 1006,5 hPa 0,0 l/m 0 min 0 min 0 W/m 33,5 km/h (5 Bft)
29.03.2015 03:32 10,9 C 8,9 C 87 % 1006,3 hPa 0,0 l/m 0 min 2 min 0 W/m 37,7 km/h (5 Bft)
29.03.2015 03:34 10,9 C 8,9 C 87 % 1006,3 hPa 0,0 l/m 0 min 2 min 0 W/m 50,2 km/h (7 Bft)
29.03.2015 03:36 10,9 C 8,9 C 87 % 1006,1 hPa 0,0 l/m 0 min 2 min 0 W/m 29,3 km/h (5 Bft)
29.03.2015 03:38 10,9 C 8,9 C 87 % 1006,2 hPa 0,0 l/m 0 min 0 min 0 W/m 29,3 km/h (5 Bft)
29.03.2015 03:40 10,9 C 8,9 C 87 % 1006,1 hPa 0,0 l/m 0 min 0 min 0 W/m 48,1 km/h (6 Bft)
29.03.2015 03:42 10,9 C 8,9 C 87 % 1006,2 hPa 0,0 l/m 0 min 0 min 0 W/m 31,4 km/h (5 Bft)
29.03.2015 03:44 10,9 C 8,9 C 87 % 1006,1 hPa 0,0 l/m 0 min 0 min 0 W/m 33,5 km/h (5 Bft)
29.03.2015 03:46 10,9 C 8,9 C 87 % 1006,1 hPa 0,0 l/m 0 min 0 min 0 W/m 43,9 km/h (6 Bft)
29.03.2015 03:48 10,9 C 8,9 C 87 % 1006,2 hPa 0,0 l/m 0 min 0 min 0 W/m 35,6 km/h (5 Bft)
29.03.2015 03:50 10,9 C 8,9 C 87 % 1006,2 hPa 0,0 l/m 0 min 0 min 0 W/m 43,9 km/h (6 Bft)
29.03.2015 03:52 10,9 C 8,9 C 86 % 1006,2 hPa 0,0 l/m 0 min 0 min 0 W/m 25,1 km/h (4 Bft)
29.03.2015 03:54 10,9 C 8,9 C 86 % 1006,2 hPa 0,0 l/m 0 min 0 min 0 W/m 37,7 km/h (5 Bft)
29.03.2015 03:56 10,9 C 8,9 C 86 % 1006,1 hPa 0,0 l/m 0 min 0 min 0 W/m 35,6 km/h (5 Bft)
29.03.2015 03:58 10,8 C 8,9 C 86 % 1006,1 hPa 0,0 l/m 0 min 0 min 0 W/m 29,3 km/h (5 Bft)
29.03.2015 04:00 10,8 C 8,9 C 87 % 1006,1 hPa 0,0 l/m 0 min 0 min 0 W/m 25,1 km/h (4 Bft)
29.03.2015 04:05 10,8 C 8,9 C 87 % 1006,1 hPa 0,0 l/m 0 min 0 min 0 W/m 35,6 km/h (5 Bft)
29.03.2015 04:06 10,8 C 8,9 C 87 % 1006,1 hPa 0,0 l/m 0 min 0 min 0 W/m 27,2 km/h (4 Bft)
29.03.2015 04:08 10,8 C 8,9 C 87 % 1006,0 hPa 0,0 l/m 0 min 0 min 0 W/m 27,2 km/h (4 Bft)
29.03.2015 04:10 10,8 C 8,9 C 87 % 1006,1 hPa 0,0 l/m 0 min 0 min 0 W/m 31,4 km/h (5 Bft)
29.03.2015 04:12 10,8 C 8,9 C 87 % 1006,1 hPa 0,0 l/m 0 min 0 min 0 W/m 48,1 km/h (6 Bft)
29.03.2015 04:14 10,8 C 8,9 C 87 % 1005,9 hPa 0,0 l/m 0 min 0 min 0 W/m 50,2 km/h (7 Bft)
29.03.2015 04:16 10,8 C 8,9 C 86 % 1005,9 hPa 0,0 l/m 0 min 0 min 0 W/m 31,4 km/h (5 Bft)
29.03.2015 04:18 10,8 C 8,9 C 86 % 1005,8 hPa 0,0 l/m 0 min 0 min 0 W/m 48,1 km/h (6 Bft)
29.03.2015 04:20 10,8 C 8,9 C 86 % 1005,8 hPa 0,0 l/m 0 min 0 min 0 W/m 43,9 km/h (6 Bft)
29.03.2015 04:22 10,8 C 8,9 C 86 % 1005,7 hPa 0,0 l/m 0 min 0 min 0 W/m 54,4 km/h (7 Bft)
29.03.2015 04:24 10,8 C 8,9 C 86 % 1005,7 hPa 0,0 l/m 0 min 0 min 0 W/m 52,3 km/h (7 Bft)
29.03.2015 04:26 10,8 C 8,9 C 86 % 1005,7 hPa 0,0 l/m 0 min 0 min 0 W/m 33,5 km/h (5 Bft)
29.03.2015 04:28 10,8 C 8,9 C 86 % 1005,7 hPa 0,0 l/m 0 min 0 min 0 W/m 33,5 km/h (5 Bft)
29.03.2015 04:30 10,8 C 8,9 C 86 % 1005,7 hPa 0,0 l/m 0 min 0 min 0 W/m 43,9 km/h (6 Bft)
29.03.2015 04:32 10,8 C 8,9 C 86 % 1005,7 hPa 0,0 l/m 0 min 0 min 0 W/m 37,7 km/h (5 Bft)
29.03.2015 04:34 10,8 C 8,9 C 86 % 1005,8 hPa 0,0 l/m 0 min 0 min 0 W/m 43,9 km/h (6 Bft)
29.03.2015 04:36 10,8 C 8,9 C 86 % 1005,7 hPa 0,0 l/m 0 min 0 min 0 W/m 37,7 km/h (5 Bft)
29.03.2015 04:38 10,8 C 8,9 C 86 % 1005,7 hPa 0,0 l/m 0 min 0 min 0 W/m 35,6 km/h (5 Bft)
29.03.2015 04:40 10,8 C 8,9 C 86 % 1005,8 hPa 0,0 l/m 0 min 0 min 0 W/m 39,7 km/h (6 Bft)
29.03.2015 04:42 10,7 C 8,9 C 86 % 1005,9 hPa 0,0 l/m 0 min 0 min 0 W/m 39,7 km/h (6 Bft)
29.03.2015 04:44 10,7 C 8,9 C 86 % 1005,8 hPa 0,0 l/m 0 min 0 min 0 W/m 33,5 km/h (5 Bft)
29.03.2015 04:46 10,7 C 8,9 C 86 % 1005,9 hPa 0,0 l/m 0 min 0 min 0 W/m 35,6 km/h (5 Bft)
29.03.2015 04:48 10,7 C 8,9 C 86 % 1005,9 hPa 0,0 l/m 0 min 0 min 0 W/m 29,3 km/h (5 Bft)
29.03.2015 04:50 10,7 C 8,9 C 86 % 1005,9 hPa 0,0 l/m 0 min 0 min 0 W/m 41,8 km/h (6 Bft)
29.03.2015 04:52 10,7 C 8,9 C 86 % 1005,9 hPa 0,0 l/m 0 min 0 min 0 W/m 39,7 km/h (6 Bft)
29.03.2015 04:54 10,7 C 8,9 C 85 % 1005,9 hPa 0,0 l/m 0 min 0 min 0 W/m 39,7 km/h (6 Bft)
29.03.2015 04:56 10,7 C 8,9 C 85 % 1006,0 hPa 0,0 l/m 0 min 0 min 0 W/m 37,7 km/h (5 Bft)
29.03.2015 04:58 10,7 C 8,9 C 85 % 1005,9 hPa 0,0 l/m 0 min 0 min 0 W/m 52,3 km/h (7 Bft)
29.03.2015 05:00 10,7 C 8,9 C 85 % 1005,9 hPa 0,0 l/m 0 min 0 min 0 W/m 43,9 km/h (6 Bft)
29.03.2015 05:02 10,7 C 9,4 C 85 % 1005,9 hPa 0,0 l/m 0 min 0 min 0 W/m 43,9 km/h (6 Bft)
29.03.2015 05:04 10,7 C 8,9 C 85 % 1005,8 hPa 0,0 l/m 0 min 0 min 0 W/m 39,7 km/h (6 Bft)
29.03.2015 05:06 10,8 C 8,9 C 85 % 1005,8 hPa 0,0 l/m 0 min 0 min 0 W/m 43,9 km/h (6 Bft)
29.03.2015 05:08 10,8 C 8,9 C 85 % 1005,7 hPa 0,0 l/m 0 min 0 min 0 W/m 29,3 km/h (5 Bft)
29.03.2015 05:10 10,8 C 8,9 C 85 % 1005,8 hPa 0,0 l/m 0 min 0 min 0 W/m 41,8 km/h (6 Bft)
29.03.2015 05:12 10,8 C 8,9 C 85 % 1005,8 hPa 0,0 l/m 0 min 0 min 0 W/m 39,7 km/h (6 Bft)
29.03.2015 05:14 10,8 C 8,9 C 85 % 1005,9 hPa 0,0 l/m 0 min 0 min 0 W/m 33,5 km/h (5 Bft)
29.03.2015 05:16 10,8 C 8,9 C 85 % 1005,8 hPa 0,0 l/m 0 min 0 min 0 W/m 29,3 km/h (5 Bft)
29.03.2015 05:18 10,8 C 8,9 C 85 % 1005,9 hPa 0,0 l/m 0 min 0 min 0 W/m 29,3 km/h (5 Bft)
29.03.2015 05:20 10,7 C 8,9 C 85 % 1005,8 hPa 0,0 l/m 0 min 0 min 0 W/m 41,8 km/h (6 Bft)
29.03.2015 05:22 10,7 C 8,9 C 85 % 1005,9 hPa 0,0 l/m 0 min 0 min 0 W/m 37,7 km/h (5 Bft)
29.03.2015 05:24 10,7 C 8,9 C 85 % 1005,8 hPa 0,0 l/m 0 min 0 min 0 W/m 29,3 km/h (5 Bft)
29.03.2015 05:26 10,7 C 8,9 C 85 % 1005,8 hPa 0,0 l/m 0 min 0 min 0 W/m 31,4 km/h (5 Bft)
29.03.2015 05:28 10,7 C 8,9 C 85 % 1005,8 hPa 0,0 l/m 0 min 0 min 0 W/m 29,3 km/h (5 Bft)
29.03.2015 05:30 10,7 C 8,9 C 85 % 1005,8 hPa 0,0 l/m 0 min 0 min 0 W/m 54,4 km/h (7 Bft)
29.03.2015 05:32 10,7 C 8,9 C 85 % 1005,8 hPa 0,0 l/m 0 min 0 min 0 W/m 46,0 km/h (6 Bft)
29.03.2015 05:34 10,7 C 8,9 C 85 % 1006,0 hPa 0,0 l/m 0 min 0 min 0 W/m 41,8 km/h (6 Bft)
29.03.2015 05:36 10,7 C 8,9 C 85 % 1005,9 hPa 0,0 l/m 0 min 0 min 0 W/m 27,2 km/h (4 Bft)
29.03.2015 05:38 10,7 C 8,9 C 85 % 1005,9 hPa 0,0 l/m 0 min 0 min 0 W/m 27,2 km/h (4 Bft)
29.03.2015 05:40 10,7 C 8,9 C 85 % 1005,9 hPa 0,0 l/m 0 min 0 min 0 W/m 27,2 km/h (4 Bft)
29.03.2015 05:42 10,7 C 8,9 C 85 % 1005,8 hPa 0,0 l/m 0 min 0 min 0 W/m 29,3 km/h (5 Bft)
29.03.2015 05:44 10,7 C 8,9 C 85 % 1005,8 hPa 0,0 l/m 0 min 0 min 0 W/m 48,1 km/h (6 Bft)
29.03.2015 05:46 10,7 C 8,9 C 85 % 1005,8 hPa 0,0 l/m 0 min 0 min 0 W/m 37,7 km/h (5 Bft)
29.03.2015 05:48 10,7 C 8,9 C 85 % 1005,8 hPa 0,0 l/m 0 min 0 min 0 W/m 31,4 km/h (5 Bft)
29.03.2015 05:50 10,7 C 8,9 C 85 % 1005,9 hPa 0,0 l/m 0 min 0 min 0 W/m 33,5 km/h (5 Bft)
29.03.2015 05:52 10,7 C 8,9 C 85 % 1005,8 hPa 0,0 l/m 0 min 0 min 0 W/m 37,7 km/h (5 Bft)
29.03.2015 05:54 10,7 C 8,9 C 84 % 1005,8 hPa 0,0 l/m 0 min 0 min 0 W/m 39,7 km/h (6 Bft)
29.03.2015 05:56 10,7 C 8,9 C 84 % 1005,8 hPa 0,0 l/m 0 min 0 min 0 W/m 35,6 km/h (5 Bft)
29.03.2015 05:58 10,7 C 8,9 C 84 % 1005,7 hPa 0,0 l/m 0 min 0 min 0 W/m 35,6 km/h (5 Bft)
29.03.2015 06:00 10,7 C 8,9 C 84 % 1005,8 hPa 0,0 l/m 0 min 0 min 0 W/m 43,9 km/h (6 Bft)
29.03.2015 06:02 10,7 C 8,9 C 84 % 1005,7 hPa 0,0 l/m 0 min 0 min 0 W/m 39,7 km/h (6 Bft)
29.03.2015 06:06 10,6 C 8,9 C 84 % 1005,7 hPa 0,0 l/m 0 min 0 min 0 W/m 39,7 km/h (6 Bft)
29.03.2015 06:08 10,6 C 8,9 C 84 % 1005,7 hPa 0,0 l/m 0 min 0 min 0 W/m 37,7 km/h (5 Bft)
29.03.2015 06:10 10,6 C 8,9 C 84 % 1005,8 hPa 0,0 l/m 0 min 0 min 0 W/m 43,9 km/h (6 Bft)
29.03.2015 06:12 10,6 C 8,9 C 84 % 1005,7 hPa 0,0 l/m 0 min 0 min 0 W/m 33,5 km/h (5 Bft)
29.03.2015 06:14 10,6 C 8,9 C 84 % 1005,7 hPa 0,0 l/m 0 min 0 min 0 W/m 62,8 km/h (8 Bft)
29.03.2015 06:16 10,6 C 8,9 C 84 % 1005,7 hPa 0,0 l/m 0 min 0 min 0 W/m 37,7 km/h (5 Bft)
29.03.2015 06:18 10,6 C 8,9 C 84 % 1005,7 hPa 0,0 l/m 0 min 0 min 0 W/m 29,3 km/h (5 Bft)
29.03.2015 06:20 10,6 C 8,9 C 84 % 1005,7 hPa 0,0 l/m 0 min 0 min 0 W/m 43,9 km/h (6 Bft)
29.03.2015 06:22 10,6 C 8,9 C 84 % 1005,7 hPa 0,0 l/m 0 min 0 min 0 W/m 37,7 km/h (5 Bft)
29.03.2015 06:24 10,6 C 8,9 C 84 % 1005,6 hPa 0,0 l/m 0 min 0 min 0 W/m 35,6 km/h (5 Bft)
29.03.2015 06:26 10,6 C 8,9 C 84 % 1005,6 hPa 0,0 l/m 0 min 0 min 0 W/m 35,6 km/h (5 Bft)
29.03.2015 06:28 10,6 C 8,9 C 84 % 1005,6 hPa 0,0 l/m 0 min 0 min 0 W/m 41,8 km/h (6 Bft)
29.03.2015 06:30 10,6 C 8,9 C 84 % 1005,5 hPa 0,0 l/m 0 min 0 min 0 W/m 35,6 km/h (5 Bft)
29.03.2015 06:32 10,6 C 8,9 C 84 % 1005,5 hPa 0,0 l/m 0 min 0 min 0 W/m 27,2 km/h (4 Bft)
29.03.2015 06:34 10,6 C 8,9 C 84 % 1005,4 hPa 0,0 l/m 0 min 0 min 0 W/m 27,2 km/h (4 Bft)
29.03.2015 06:36 10,6 C 8,9 C 84 % 1005,4 hPa 0,0 l/m 0 min 0 min 0 W/m 31,4 km/h (5 Bft)
29.03.2015 06:38 10,6 C 8,9 C 84 % 1005,4 hPa 0,0 l/m 0 min 0 min 0 W/m 35,6 km/h (5 Bft)
29.03.2015 06:40 10,5 C 8,9 C 84 % 1005,2 hPa 0,0 l/m 0 min 0 min 0 W/m 25,1 km/h (4 Bft)
29.03.2015 06:42 10,5 C 8,9 C 84 % 1005,3 hPa 0,0 l/m 0 min 0 min 0 W/m 37,7 km/h (5 Bft)
29.03.2015 06:44 10,5 C 8,9 C 85 % 1005,2 hPa 0,0 l/m 0 min 0 min 0 W/m 35,6 km/h (5 Bft)
29.03.2015 06:46 10,5 C 8,9 C 85 % 1005,2 hPa 0,0 l/m 0 min 0 min 0 W/m 29,3 km/h (5 Bft)
29.03.2015 06:48 10,5 C 8,9 C 85 % 1005,2 hPa 0,0 l/m 0 min 0 min 0 W/m 35,6 km/h (5 Bft)
29.03.2015 06:50 10,5 C 8,9 C 84 % 1005,2 hPa 0,0 l/m 0 min 0 min 0 W/m 43,9 km/h (6 Bft)
29.03.2015 06:52 10,4 C 8,9 C 84 % 1005,1 hPa 0,0 l/m 0 min 0 min 0 W/m 33,5 km/h (5 Bft)
29.03.2015 06:54 10,4 C 8,9 C 84 % 1005,1 hPa 0,0 l/m 0 min 0 min 0 W/m 31,4 km/h (5 Bft)
29.03.2015 06:56 10,4 C 8,9 C 84 % 1005,1 hPa 0,0 l/m 0 min 0 min 0 W/m 27,2 km/h (4 Bft)
29.03.2015 06:58 10,4 C 8,9 C 84 % 1005,1 hPa 0,0 l/m 0 min 0 min 0 W/m 33,5 km/h (5 Bft)
29.03.2015 07:00 10,4 C 8,9 C 84 % 1005,2 hPa 0,0 l/m 0 min 0 min 0 W/m 37,7 km/h (5 Bft)
29.03.2015 07:02 10,4 C 8,9 C 84 % 1005,2 hPa 0,0 l/m 0 min 0 min 0 W/m 37,7 km/h (5 Bft)
29.03.2015 07:04 10,4 C 8,9 C 84 % 1005,1 hPa 0,0 l/m 0 min 0 min 0 W/m 33,5 km/h (5 Bft)
29.03.2015 07:06 10,4 C 8,9 C 84 % 1005,1 hPa 0,0 l/m 0 min 0 min 0 W/m 46,0 km/h (6 Bft)
29.03.2015 07:08 10,4 C 8,9 C 84 % 1005,1 hPa 0,0 l/m 0 min 0 min 0 W/m 33,5 km/h (5 Bft)
29.03.2015 07:10 10,4 C 8,9 C 84 % 1005,0 hPa 0,0 l/m 0 min 0 min 0 W/m 39,7 km/h (6 Bft)
29.03.2015 07:12 10,4 C 8,9 C 84 % 1004,8 hPa 0,0 l/m 0 min 0 min 0 W/m 39,7 km/h (6 Bft)
29.03.2015 07:14 10,4 C 8,9 C 84 % 1004,9 hPa 0,0 l/m 0 min 0 min 0 W/m 35,6 km/h (5 Bft)
29.03.2015 07:16 10,4 C 8,9 C 83 % 1004,8 hPa 0,0 l/m 0 min 0 min 0 W/m 37,7 km/h (5 Bft)
29.03.2015 07:18 10,4 C 8,9 C 83 % 1004,8 hPa 0,0 l/m 0 min 0 min 0 W/m 31,4 km/h (5 Bft)
29.03.2015 07:20 10,4 C 8,9 C 83 % 1004,7 hPa 0,0 l/m 0 min 0 min 0 W/m 39,7 km/h (6 Bft)
29.03.2015 07:22 10,4 C 8,9 C 83 % 1004,8 hPa 0,0 l/m 0 min 0 min 0 W/m 23,0 km/h (4 Bft)
29.03.2015 07:24 10,3 C 8,9 C 83 % 1004,7 hPa 0,0 l/m 0 min 0 min 0 W/m 31,4 km/h (5 Bft)
29.03.2015 07:26 10,3 C 8,9 C 83 % 1004,8 hPa 0,0 l/m 0 min 0 min 0 W/m 37,7 km/h (5 Bft)
29.03.2015 07:28 10,3 C 8,9 C 83 % 1004,8 hPa 0,0 l/m 0 min 0 min 0 W/m 35,6 km/h (5 Bft)
29.03.2015 07:30 10,3 C 8,9 C 83 % 1004,8 hPa 0,0 l/m 0 min 0 min 0 W/m 37,7 km/h (5 Bft)
29.03.2015 07:32 10,3 C 8,9 C 83 % 1004,8 hPa 0,0 l/m 0 min 0 min 3 W/m 29,3 km/h (5 Bft)
29.03.2015 07:34 10,3 C 8,9 C 83 % 1004,7 hPa 0,0 l/m 0 min 0 min 5 W/m 39,7 km/h (6 Bft)
29.03.2015 07:36 10,3 C 8,9 C 82 % 1004,8 hPa 0,0 l/m 0 min 0 min 5 W/m 39,7 km/h (6 Bft)
29.03.2015 07:38 10,3 C 8,9 C 82 % 1004,8 hPa 0,0 l/m 0 min 0 min 5 W/m 29,3 km/h (5 Bft)
29.03.2015 07:40 10,3 C 8,9 C 82 % 1004,7 hPa 0,0 l/m 0 min 0 min 5 W/m 37,7 km/h (5 Bft)
29.03.2015 07:42 10,2 C 8,9 C 82 % 1004,8 hPa 0,0 l/m 0 min 0 min 7 W/m 46,0 km/h (6 Bft)
29.03.2015 07:44 10,2 C 8,9 C 82 % 1004,7 hPa 0,0 l/m 0 min 0 min 7 W/m 27,2 km/h (4 Bft)
29.03.2015 07:46 10,2 C 8,9 C 82 % 1004,6 hPa 0,0 l/m 0 min 0 min 5 W/m 37,7 km/h (5 Bft)
29.03.2015 07:48 10,2 C 8,9 C 82 % 1004,7 hPa 0,0 l/m 0 min 0 min 5 W/m 37,7 km/h (5 Bft)
29.03.2015 07:50 10,2 C 8,9 C 82 % 1004,7 hPa 0,0 l/m 0 min 0 min 5 W/m 35,6 km/h (5 Bft)
29.03.2015 07:52 10,2 C 8,3 C 82 % 1004,7 hPa 0,0 l/m 0 min 0 min 5 W/m 35,6 km/h (5 Bft)
29.03.2015 07:54 10,2 C 8,9 C 82 % 1004,8 hPa 0,0 l/m 0 min 0 min 5 W/m 43,9 km/h (6 Bft)
29.03.2015 07:56 10,2 C 8,9 C 82 % 1004,7 hPa 0,0 l/m 0 min 0 min 5 W/m 43,9 km/h (6 Bft)
29.03.2015 07:58 10,2 C 8,9 C 82 % 1004,7 hPa 0,0 l/m 0 min 0 min 7 W/m 37,7 km/h (5 Bft)
29.03.2015 08:00 10,2 C 8,9 C 82 % 1004,6 hPa 0,0 l/m 0 min 0 min 7 W/m 39,7 km/h (6 Bft)
29.03.2015 08:02 10,2 C 8,9 C 82 % 1004,6 hPa 0,0 l/m 0 min 0 min 10 W/m 29,3 km/h (5 Bft)
29.03.2015 08:04 10,1 C 8,9 C 82 % 1004,6 hPa 0,0 l/m 0 min 0 min 11 W/m 39,7 km/h (6 Bft)
29.03.2015 08:06 10,1 C 8,9 C 82 % 1004,5 hPa 0,0 l/m 0 min 0 min 15 W/m 37,7 km/h (5 Bft)
29.03.2015 08:08 10,1 C 8,3 C 82 % 1004,5 hPa 0,0 l/m 0 min 0 min 18 W/m 31,4 km/h (5 Bft)
29.03.2015 08:10 10,1 C 8,3 C 82 % 1004,7 hPa 0,0 l/m 0 min 0 min 17 W/m 50,2 km/h (7 Bft)
29.03.2015 08:12 10,1 C 8,3 C 83 % 1004,6 hPa 0,0 l/m 0 min 2 min 16 W/m 43,9 km/h (6 Bft)
29.03.2015 08:14 10,1 C 8,3 C 83 % 1004,7 hPa 0,0 l/m 0 min 2 min 18 W/m 41,8 km/h (6 Bft)
29.03.2015 08:16 10,1 C 7,8 C 83 % 1004,7 hPa 0,0 l/m 0 min 2 min 22 W/m 39,7 km/h (6 Bft)
29.03.2015 08:18 10,1 C 7,8 C 83 % 1004,6 hPa 0,0 l/m 0 min 2 min 26 W/m 31,4 km/h (5 Bft)
29.03.2015 08:20 10,1 C 7,8 C 84 % 1004,6 hPa 0,0 l/m 0 min 2 min 32 W/m 31,4 km/h (5 Bft)
29.03.2015 08:22 10,0 C 7,8 C 84 % 1004,5 hPa 0,0 l/m 0 min 2 min 28 W/m 43,9 km/h (6 Bft)
29.03.2015 08:24 10,0 C 7,8 C 84 % 1004,6 hPa 0,0 l/m 0 min 2 min 24 W/m 39,7 km/h (6 Bft)
29.03.2015 08:26 9,9 C 7,8 C 84 % 1004,6 hPa 0,0 l/m 0 min 2 min 22 W/m 29,3 km/h (5 Bft)
29.03.2015 08:28 9,9 C 7,8 C 85 % 1004,6 hPa 0,0 l/m 0 min 2 min 20 W/m 27,2 km/h (4 Bft)
29.03.2015 08:30 9,9 C 7,8 C 85 % 1004,5 hPa 0,0 l/m 0 min 0 min 19 W/m 46,0 km/h (6 Bft)
29.03.2015 08:32 9,8 C 7,8 C 85 % 1004,5 hPa 0,0 l/m 0 min 2 min 20 W/m 37,7 km/h (5 Bft)
29.03.2015 08:34 9,8 C 7,8 C 86 % 1004,6 hPa 0,0 l/m 0 min 0 min 23 W/m 33,5 km/h (5 Bft)
29.03.2015 08:36 9,8 C 7,8 C 86 % 1004,5 hPa 0,0 l/m 0 min 2 min 25 W/m 43,9 km/h (6 Bft)
29.03.2015 08:38 9,7 C 7,8 C 86 % 1004,6 hPa 0,0 l/m 0 min 2 min 30 W/m 43,9 km/h (6 Bft)
29.03.2015 08:40 9,7 C 7,8 C 86 % 1004,4 hPa 0,0 l/m 0 min 0 min 35 W/m 25,1 km/h (4 Bft)
29.03.2015 08:42 9,7 C 7,8 C 87 % 1004,5 hPa 0,0 l/m 0 min 0 min 41 W/m 23,0 km/h (4 Bft)
29.03.2015 08:44 9,7 C 7,8 C 87 % 1004,4 hPa 0,0 l/m 0 min 0 min 37 W/m 29,3 km/h (5 Bft)
29.03.2015 08:46 9,6 C 7,8 C 87 % 1004,4 hPa 0,0 l/m 0 min 0 min 34 W/m 33,5 km/h (5 Bft)
29.03.2015 08:48 9,6 C 7,8 C 87 % 1004,4 hPa 0,0 l/m 0 min 2 min 36 W/m 31,4 km/h (5 Bft)
29.03.2015 08:50 9,6 C 7,8 C 87 % 1004,4 hPa 0,0 l/m 0 min 0 min 44 W/m 33,5 km/h (5 Bft)
29.03.2015 08:52 9,6 C 7,8 C 88 % 1004,3 hPa 0,0 l/m 0 min 0 min 45 W/m 35,6 km/h (5 Bft)
29.03.2015 08:54 9,6 C 7,8 C 88 % 1004,2 hPa 0,0 l/m 0 min 0 min 45 W/m 29,3 km/h (5 Bft)
29.03.2015 08:56 9,5 C 7,8 C 88 % 1004,2 hPa 0,0 l/m 0 min 0 min 46 W/m 33,5 km/h (5 Bft)
29.03.2015 08:58 9,5 C 8,3 C 88 % 1004,2 hPa 0,0 l/m 0 min 0 min 48 W/m 46,0 km/h (6 Bft)
29.03.2015 09:00 9,6 C 8,3 C 88 % 1004,2 hPa 0,0 l/m 0 min 0 min 55 W/m 33,5 km/h (5 Bft)
29.03.2015 09:02 9,5 C 8,3 C 88 % 1004,2 hPa 0,0 l/m 0 min 0 min 63 W/m 39,7 km/h (6 Bft)
29.03.2015 09:04 9,6 C 8,3 C 88 % 1004,2 hPa 0,0 l/m 0 min 0 min 57 W/m 31,4 km/h (5 Bft)
29.03.2015 09:06 9,6 C 8,3 C 88 % 1004,1 hPa 0,0 l/m 0 min 0 min 53 W/m 31,4 km/h (5 Bft)
29.03.2015 09:08 9,6 C 8,3 C 88 % 1004,2 hPa 0,0 l/m 0 min 0 min 46 W/m 25,1 km/h (4 Bft)
29.03.2015 09:10 9,6 C 8,3 C 88 % 1004,2 hPa 0,0 l/m 0 min 0 min 40 W/m 33,5 km/h (5 Bft)
29.03.2015 09:12 9,6 C 8,3 C 88 % 1004,2 hPa 0,0 l/m 0 min 0 min 35 W/m 29,3 km/h (5 Bft)
29.03.2015 09:14 9,6 C 8,3 C 88 % 1004,2 hPa 0,0 l/m 0 min 0 min 32 W/m 35,6 km/h (5 Bft)
29.03.2015 09:16 9,6 C 8,3 C 88 % 1004,2 hPa 0,0 l/m 0 min 2 min 34 W/m 35,6 km/h (5 Bft)
29.03.2015 09:18 9,6 C 8,3 C 88 % 1004,2 hPa 0,0 l/m 0 min 2 min 40 W/m 43,9 km/h (6 Bft)
29.03.2015 09:20 9,6 C 7,8 C 88 % 1004,1 hPa 0,0 l/m 0 min 2 min 55 W/m 29,3 km/h (5 Bft)
29.03.2015 09:22 9,6 C 7,8 C 88 % 1004,3 hPa 0,0 l/m 0 min 2 min 51 W/m 37,7 km/h (5 Bft)
29.03.2015 09:24 9,6 C 7,8 C 89 % 1004,0 hPa 0,0 l/m 0 min 2 min 41 W/m 35,6 km/h (5 Bft)
29.03.2015 09:26 9,6 C 7,8 C 89 % 1004,0 hPa 0,0 l/m 0 min 2 min 47 W/m 20,9 km/h (4 Bft)
29.03.2015 09:28 9,6 C 7,8 C 89 % 1004,1 hPa 0,0 l/m 0 min 2 min 44 W/m 29,3 km/h (5 Bft)
29.03.2015 09:30 9,6 C 7,2 C 89 % 1004,0 hPa 0,0 l/m 0 min 2 min 51 W/m 41,8 km/h (6 Bft)
29.03.2015 09:32 9,6 C 7,2 C 89 % 1004,0 hPa 0,0 l/m 0 min 2 min 52 W/m 29,3 km/h (5 Bft)
29.03.2015 09:34 9,5 C 7,8 C 90 % 1003,9 hPa 0,2 l/m 0 min 2 min 62 W/m 31,4 km/h (5 Bft)
29.03.2015 09:36 9,5 C 7,8 C 90 % 1004,0 hPa 0,0 l/m 0 min 2 min 60 W/m 27,2 km/h (4 Bft)
29.03.2015 09:38 9,4 C 7,8 C 90 % 1003,9 hPa 0,0 l/m 0 min 2 min 68 W/m 33,5 km/h (5 Bft)
29.03.2015 09:40 9,4 C 7,8 C 90 % 1004,0 hPa 0,0 l/m 0 min 2 min 68 W/m 39,7 km/h (6 Bft)
29.03.2015 09:42 9,4 C 7,8 C 91 % 1003,9 hPa 0,0 l/m 0 min 2 min 67 W/m 27,2 km/h (4 Bft)
29.03.2015 09:44 9,4 C 7,8 C 91 % 1003,8 hPa 0,0 l/m 0 min 2 min 67 W/m 35,6 km/h (5 Bft)
29.03.2015 09:46 9,4 C 7,8 C 91 % 1003,8 hPa 0,0 l/m 0 min 2 min 68 W/m 35,6 km/h (5 Bft)
29.03.2015 09:48 9,4 C 7,8 C 91 % 1003,8 hPa 0,0 l/m 0 min 2 min 74 W/m 35,6 km/h (5 Bft)
29.03.2015 09:50 9,4 C 7,8 C 91 % 1003,8 hPa 0,0 l/m 0 min 2 min 60 W/m 29,3 km/h (5 Bft)
29.03.2015 09:52 9,3 C 7,8 C 91 % 1003,8 hPa 0,2 l/m 0 min 2 min 48 W/m 33,5 km/h (5 Bft)
29.03.2015 09:54 9,3 C 7,8 C 92 % 1003,7 hPa 0,0 l/m 0 min 2 min 46 W/m 25,1 km/h (4 Bft)
29.03.2015 09:56 9,3 C 7,2 C 92 % 1003,8 hPa 0,0 l/m 0 min 2 min 42 W/m 27,2 km/h (4 Bft)
29.03.2015 09:58 9,3 C 7,2 C 92 % 1003,8 hPa 0,0 l/m 0 min 2 min 37 W/m 27,2 km/h (4 Bft)
29.03.2015 10:00 9,3 C 7,2 C 92 % 1003,8 hPa 0,0 l/m 0 min 2 min 45 W/m 18,8 km/h (3 Bft)
29.03.2015 10:02 9,3 C 7,8 C 92 % 1003,6 hPa 0,0 l/m 0 min 2 min 68 W/m 31,4 km/h (5 Bft)
29.03.2015 10:04 9,3 C 7,8 C 93 % 1003,5 hPa 0,0 l/m 0 min 2 min 80 W/m 27,2 km/h (4 Bft)
29.03.2015 10:06 9,3 C 7,8 C 93 % 1003,5 hPa 0,2 l/m 0 min 2 min 67 W/m 25,1 km/h (4 Bft)
29.03.2015 10:08 9,2 C 7,8 C 93 % 1003,5 hPa 0,0 l/m 0 min 2 min 60 W/m 27,2 km/h (4 Bft)
29.03.2015 10:10 9,2 C 7,2 C 93 % 1003,5 hPa 0,0 l/m 0 min 2 min 56 W/m 31,4 km/h (5 Bft)
29.03.2015 10:12 9,2 C 7,2 C 93 % 1003,5 hPa 0,0 l/m 0 min 2 min 50 W/m 33,5 km/h (5 Bft)
29.03.2015 10:14 9,2 C 7,8 C 93 % 1003,5 hPa 0,0 l/m 0 min 2 min 47 W/m 31,4 km/h (5 Bft)
29.03.2015 10:16 9,2 C 7,2 C 93 % 1003,4 hPa 0,0 l/m 0 min 2 min 47 W/m 37,7 km/h (5 Bft)
29.03.2015 10:18 9,2 C 7,2 C 93 % 1003,4 hPa 0,0 l/m 0 min 2 min 44 W/m 27,2 km/h (4 Bft)
29.03.2015 10:20 9,2 C 7,8 C 93 % 1003,4 hPa 0,0 l/m 0 min 2 min 52 W/m 29,3 km/h (5 Bft)
29.03.2015 10:22 9,2 C 7,2 C 93 % 1003,4 hPa 0,0 l/m 0 min 2 min 49 W/m 33,5 km/h (5 Bft)
29.03.2015 10:24 9,2 C 7,2 C 94 % 1003,3 hPa 0,0 l/m 0 min 2 min 54 W/m 37,7 km/h (5 Bft)
29.03.2015 10:26 9,1 C 7,8 C 94 % 1003,2 hPa 0,0 l/m 0 min 2 min 58 W/m 25,1 km/h (4 Bft)
29.03.2015 10:28 9,1 C 7,8 C 94 % 1003,2 hPa 0,0 l/m 0 min 2 min 54 W/m 23,0 km/h (4 Bft)
29.03.2015 10:30 9,1 C 7,8 C 94 % 1003,1 hPa 0,0 l/m 0 min 2 min 59 W/m 33,5 km/h (5 Bft)
29.03.2015 10:32 9,1 C 7,8 C 94 % 1003,1 hPa 0,2 l/m 0 min 2 min 68 W/m 35,6 km/h (5 Bft)
29.03.2015 10:34 9,1 C 7,8 C 94 % 1003,1 hPa 0,0 l/m 0 min 2 min 70 W/m 35,6 km/h (5 Bft)
29.03.2015 10:36 9,1 C 7,8 C 94 % 1003,1 hPa 0,0 l/m 0 min 2 min 69 W/m 31,4 km/h (5 Bft)
29.03.2015 10:38 9,1 C 7,8 C 94 % 1003,0 hPa 0,0 l/m 0 min 2 min 73 W/m 29,3 km/h (5 Bft)
29.03.2015 10:40 9,1 C 7,8 C 94 % 1003,0 hPa 0,0 l/m 0 min 2 min 65 W/m 16,7 km/h (3 Bft)
29.03.2015 10:42 9,1 C 7,8 C 94 % 1002,9 hPa 0,0 l/m 0 min 2 min 66 W/m 33,5 km/h (5 Bft)
29.03.2015 10:44 9,1 C 7,8 C 94 % 1002,9 hPa 0,0 l/m 0 min 2 min 66 W/m 25,1 km/h (4 Bft)
29.03.2015 10:46 9,2 C 7,8 C 94 % 1002,8 hPa 0,0 l/m 0 min 2 min 72 W/m 27,2 km/h (4 Bft)
29.03.2015 10:48 9,2 C 7,8 C 95 % 1002,8 hPa 0,0 l/m 0 min 2 min 77 W/m 37,7 km/h (5 Bft)
29.03.2015 10:50 9,2 C 7,8 C 95 % 1002,8 hPa 0,0 l/m 0 min 2 min 88 W/m 29,3 km/h (5 Bft)
29.03.2015 10:52 9,2 C 7,8 C 95 % 1002,7 hPa 0,0 l/m 0 min 2 min 108 W/m 33,5 km/h (5 Bft)
29.03.2015 10:54 9,2 C 7,8 C 95 % 1002,7 hPa 0,0 l/m 0 min 0 min 130 W/m 25,1 km/h (4 Bft)
29.03.2015 10:56 9,2 C 7,8 C 95 % 1002,6 hPa 0,0 l/m 0 min 0 min 123 W/m 27,2 km/h (4 Bft)
29.03.2015 10:58 9,2 C 7,8 C 95 % 1002,5 hPa 0,0 l/m 0 min 2 min 118 W/m 31,4 km/h (5 Bft)
29.03.2015 11:00 9,2 C 7,8 C 95 % 1002,5 hPa 0,0 l/m 0 min 2 min 122 W/m 31,4 km/h (5 Bft)
29.03.2015 11:02 9,2 C 7,8 C 95 % 1002,4 hPa 0,0 l/m 0 min 2 min 120 W/m 29,3 km/h (5 Bft)
29.03.2015 11:04 9,2 C 7,8 C 95 % 1002,4 hPa 0,0 l/m 0 min 2 min 124 W/m 25,1 km/h (4 Bft)
29.03.2015 11:06 9,3 C 7,8 C 95 % 1002,4 hPa 0,0 l/m 0 min 2 min 83 W/m 31,4 km/h (5 Bft)
29.03.2015 11:08 9,3 C 7,8 C 95 % 1002,4 hPa 0,0 l/m 0 min 2 min 57 W/m 29,3 km/h (5 Bft)
29.03.2015 11:10 9,3 C 7,8 C 95 % 1002,3 hPa 0,2 l/m 0 min 2 min 48 W/m 20,9 km/h (4 Bft)
29.03.2015 11:12 9,3 C 7,8 C 95 % 1002,3 hPa 0,0 l/m 0 min 2 min 43 W/m 20,9 km/h (4 Bft)
29.03.2015 11:14 9,3 C 7,8 C 95 % 1002,2 hPa 0,0 l/m 0 min 2 min 60 W/m 25,1 km/h (4 Bft)
29.03.2015 11:16 9,3 C 7,8 C 95 % 1002,2 hPa 0,0 l/m 0 min 2 min 65 W/m 27,2 km/h (4 Bft)
29.03.2015 11:18 9,3 C 7,8 C 95 % 1002,2 hPa 0,0 l/m 0 min 2 min 66 W/m 31,4 km/h (5 Bft)
29.03.2015 11:20 9,3 C 7,8 C 95 % 1002,2 hPa 0,2 l/m 0 min 2 min 66 W/m 23,0 km/h (4 Bft)
29.03.2015 11:22 9,3 C 7,8 C 95 % 1002,1 hPa 0,0 l/m 0 min 2 min 65 W/m 25,1 km/h (4 Bft)
29.03.2015 11:24 9,3 C 7,8 C 95 % 1002,1 hPa 0,0 l/m 0 min 2 min 61 W/m 27,2 km/h (4 Bft)
29.03.2015 11:26 9,3 C 7,8 C 95 % 1002,1 hPa 0,0 l/m 0 min 2 min 75 W/m 20,9 km/h (4 Bft)
29.03.2015 11:28 9,3 C 7,8 C 95 % 1002,1 hPa 0,0 l/m 0 min 2 min 67 W/m 33,5 km/h (5 Bft)
29.03.2015 11:30 9,3 C 7,8 C 95 % 1002,1 hPa 0,0 l/m 0 min 2 min 76 W/m 29,3 km/h (5 Bft)
29.03.2015 11:32 9,2 C 7,8 C 95 % 1002,0 hPa 0,0 l/m 0 min 2 min 50 W/m 33,5 km/h (5 Bft)
29.03.2015 11:34 9,2 C 7,8 C 95 % 1001,9 hPa 0,0 l/m 0 min 2 min 39 W/m 33,5 km/h (5 Bft)
29.03.2015 11:36 9,2 C 7,8 C 95 % 1001,9 hPa 0,0 l/m 0 min 2 min 53 W/m 31,4 km/h (5 Bft)
29.03.2015 11:38 9,2 C 7,8 C 95 % 1001,8 hPa 0,0 l/m 0 min 2 min 42 W/m 31,4 km/h (5 Bft)
29.03.2015 11:40 9,2 C 7,8 C 96 % 1001,9 hPa 0,0 l/m 0 min 2 min 47 W/m 31,4 km/h (5 Bft)
29.03.2015 11:42 9,2 C 7,8 C 96 % 1001,8 hPa 0,0 l/m 0 min 2 min 74 W/m 29,3 km/h (5 Bft)
29.03.2015 11:44 9,2 C 7,8 C 96 % 1001,7 hPa 0,0 l/m 0 min 2 min 91 W/m 33,5 km/h (5 Bft)
29.03.2015 11:46 9,2 C 7,8 C 96 % 1001,7 hPa 0,0 l/m 0 min 2 min 87 W/m 48,1 km/h (6 Bft)
29.03.2015 11:48 9,2 C 7,8 C 96 % 1001,7 hPa 0,0 l/m 0 min 2 min 102 W/m 39,7 km/h (6 Bft)
29.03.2015 11:50 9,3 C 7,8 C 96 % 1001,7 hPa 0,0 l/m 0 min 2 min 118 W/m 35,6 km/h (5 Bft)
29.03.2015 11:52 9,3 C 8,3 C 96 % 1001,7 hPa 0,0 l/m 0 min 2 min 119 W/m 23,0 km/h (4 Bft)
29.03.2015 11:54 9,3 C 7,8 C 96 % 1001,7 hPa 0,0 l/m 0 min 2 min 114 W/m 29,3 km/h (5 Bft)
29.03.2015 11:56 9,3 C 7,8 C 96 % 1001,7 hPa 0,0 l/m 0 min 2 min 113 W/m 39,7 km/h (6 Bft)
29.03.2015 11:58 9,4 C 8,3 C 96 % 1001,6 hPa 0,0 l/m 0 min 2 min 125 W/m 29,3 km/h (5 Bft)
29.03.2015 12:00 9,4 C 8,3 C 96 % 1001,6 hPa 0,0 l/m 0 min 2 min 128 W/m 27,2 km/h (4 Bft)
29.03.2015 12:02 9,4 C 8,3 C 96 % 1001,5 hPa 0,0 l/m 0 min 2 min 136 W/m 31,4 km/h (5 Bft)
29.03.2015 12:06 9,4 C 8,3 C 96 % 1001,6 hPa 0,0 l/m 0 min 2 min 151 W/m 31,4 km/h (5 Bft)
29.03.2015 12:08 9,5 C 8,3 C 96 % 1001,4 hPa 0,0 l/m 0 min 2 min 160 W/m 25,1 km/h (4 Bft)
29.03.2015 12:10 9,5 C 8,3 C 96 % 1001,4 hPa 0,0 l/m 0 min 2 min 157 W/m 41,8 km/h (6 Bft)
29.03.2015 12:12 9,6 C 8,3 C 96 % 1001,4 hPa 0,0 l/m 0 min 2 min 158 W/m 29,3 km/h (5 Bft)
29.03.2015 12:14 9,6 C 8,3 C 96 % 1001,2 hPa 0,0 l/m 0 min 2 min 147 W/m 31,4 km/h (5 Bft)
29.03.2015 12:16 9,6 C 8,3 C 96 % 1001,2 hPa 0,0 l/m 0 min 2 min 163 W/m 27,2 km/h (4 Bft)
29.03.2015 12:18 9,6 C 8,3 C 96 % 1001,2 hPa 0,0 l/m 0 min 0 min 175 W/m 29,3 km/h (5 Bft)
29.03.2015 12:20 9,7 C 8,9 C 96 % 1001,1 hPa 0,0 l/m 0 min 0 min 172 W/m 25,1 km/h (4 Bft)
29.03.2015 12:22 9,7 C 8,9 C 95 % 1001,2 hPa 0,0 l/m 0 min 0 min 134 W/m 16,7 km/h (3 Bft)
29.03.2015 12:24 9,7 C 8,9 C 95 % 1001,0 hPa 0,0 l/m 0 min 2 min 144 W/m 25,1 km/h (4 Bft)
29.03.2015 12:26 9,7 C 8,3 C 95 % 1001,0 hPa 0,0 l/m 0 min 2 min 151 W/m 37,7 km/h (5 Bft)
29.03.2015 12:28 9,7 C 8,9 C 95 % 1001,0 hPa 0,0 l/m 0 min 2 min 157 W/m 29,3 km/h (5 Bft)
29.03.2015 12:30 9,7 C 8,9 C 95 % 1000,9 hPa 0,0 l/m 0 min 2 min 169 W/m 31,4 km/h (5 Bft)
29.03.2015 12:32 9,8 C 8,9 C 95 % 1000,9 hPa 0,0 l/m 0 min 2 min 196 W/m 31,4 km/h (5 Bft)
29.03.2015 12:34 9,8 C 8,9 C 95 % 1000,9 hPa 0,2 l/m 0 min 2 min 209 W/m 35,6 km/h (5 Bft)
29.03.2015 12:36 9,8 C 8,9 C 95 % 1000,9 hPa 0,0 l/m 0 min 2 min 199 W/m 29,3 km/h (5 Bft)
29.03.2015 12:38 9,9 C 8,9 C 95 % 1000,9 hPa 0,0 l/m 0 min 2 min 184 W/m 31,4 km/h (5 Bft)
29.03.2015 12:40 9,9 C 8,9 C 95 % 1000,8 hPa 0,0 l/m 0 min 2 min 163 W/m 23,0 km/h (4 Bft)
29.03.2015 12:42 9,9 C 8,9 C 95 % 1000,8 hPa 0,0 l/m 0 min 2 min 139 W/m 20,9 km/h (4 Bft)
29.03.2015 12:44 9,9 C 8,9 C 95 % 1000,7 hPa 0,0 l/m 0 min 2 min 133 W/m 31,4 km/h (5 Bft)
29.03.2015 12:46 10,0 C 8,9 C 95 % 1000,7 hPa 0,0 l/m 0 min 2 min 120 W/m 18,8 km/h (3 Bft)
29.03.2015 12:48 10,0 C 8,9 C 95 % 1000,7 hPa 0,0 l/m 0 min 2 min 91 W/m 37,7 km/h (5 Bft)
29.03.2015 12:50 10,0 C 8,3 C 95 % 1000,7 hPa 0,0 l/m 0 min 2 min 87 W/m 31,4 km/h (5 Bft)
29.03.2015 12:52 10,0 C 8,3 C 95 % 1000,5 hPa 0,2 l/m 0 min 2 min 94 W/m 33,5 km/h (5 Bft)
29.03.2015 12:54 10,0 C 8,3 C 95 % 1000,5 hPa 0,0 l/m 0 min 2 min 109 W/m 27,2 km/h (4 Bft)
29.03.2015 12:56 10,0 C 8,3 C 95 % 1000,5 hPa 0,0 l/m 0 min 2 min 102 W/m 33,5 km/h (5 Bft)
29.03.2015 12:58 9,9 C 8,3 C 95 % 1000,5 hPa 0,0 l/m 0 min 2 min 90 W/m 29,3 km/h (5 Bft)
29.03.2015 13:00 9,9 C 8,3 C 95 % 1000,3 hPa 0,0 l/m 0 min 2 min 101 W/m 29,3 km/h (5 Bft)
29.03.2015 13:02 9,9 C 8,9 C 95 % 1000,3 hPa 0,0 l/m 0 min 2 min 124 W/m 23,0 km/h (4 Bft)
29.03.2015 13:04 10,0 C 8,3 C 95 % 1000,3 hPa 0,2 l/m 0 min 2 min 104 W/m 23,0 km/h (4 Bft)
29.03.2015 13:06 10,0 C 8,9 C 95 % 1000,2 hPa 0,0 l/m 0 min 2 min 120 W/m 20,9 km/h (4 Bft)
29.03.2015 13:08 10,0 C 8,3 C 95 % 1000,2 hPa 0,0 l/m 0 min 2 min 113 W/m 23,0 km/h (4 Bft)
29.03.2015 13:10 10,0 C 8,3 C 95 % 1000,1 hPa 0,0 l/m 0 min 2 min 87 W/m 35,6 km/h (5 Bft)
29.03.2015 13:12 10,0 C 8,3 C 95 % 999,9 hPa 0,2 l/m 0 min 2 min 81 W/m 20,9 km/h (4 Bft)
29.03.2015 13:14 10,0 C 8,3 C 95 % 999,9 hPa 0,0 l/m 0 min 2 min 85 W/m 25,1 km/h (4 Bft)
29.03.2015 13:16 10,0 C 8,3 C 95 % 999,8 hPa 0,0 l/m 0 min 2 min 111 W/m 31,4 km/h (5 Bft)
29.03.2015 13:18 10,0 C 8,9 C 95 % 999,7 hPa 0,0 l/m 0 min 2 min 124 W/m 29,3 km/h (5 Bft)
29.03.2015 13:20 10,0 C 8,9 C 95 % 999,6 hPa 0,0 l/m 0 min 2 min 130 W/m 29,3 km/h (5 Bft)
29.03.2015 13:22 10,0 C 8,9 C 95 % 999,6 hPa 0,2 l/m 0 min 2 min 150 W/m 29,3 km/h (5 Bft)
29.03.2015 13:24 10,0 C 8,9 C 95 % 999,6 hPa 0,0 l/m 0 min 2 min 116 W/m 18,8 km/h (3 Bft)
29.03.2015 13:26 10,1 C 8,9 C 95 % 999,5 hPa 0,0 l/m 0 min 2 min 90 W/m 31,4 km/h (5 Bft)
29.03.2015 13:28 10,1 C 8,9 C 95 % 999,3 hPa 0,2 l/m 0 min 2 min 98 W/m 27,2 km/h (4 Bft)
29.03.2015 13:30 10,1 C 8,9 C 95 % 999,3 hPa 0,0 l/m 0 min 2 min 118 W/m 29,3 km/h (5 Bft)
29.03.2015 13:32 10,1 C 8,9 C 95 % 999,1 hPa 0,0 l/m 0 min 2 min 163 W/m 43,9 km/h (6 Bft)
29.03.2015 13:34 10,1 C 8,9 C 95 % 999,1 hPa 0,0 l/m 0 min 2 min 195 W/m 48,1 km/h (6 Bft)
29.03.2015 13:36 10,1 C 8,9 C 95 % 999,0 hPa 0,0 l/m 0 min 2 min 192 W/m 25,1 km/h (4 Bft)
29.03.2015 13:38 10,1 C 8,9 C 95 % 999,0 hPa 0,0 l/m 0 min 2 min 205 W/m 27,2 km/h (4 Bft)
29.03.2015 13:40 10,2 C 8,9 C 96 % 999,0 hPa 0,0 l/m 0 min 2 min 178 W/m 33,5 km/h (5 Bft)
29.03.2015 13:42 10,2 C 8,9 C 96 % 998,9 hPa 0,0 l/m 0 min 2 min 159 W/m 27,2 km/h (4 Bft)
29.03.2015 13:44 10,2 C 8,9 C 96 % 998,9 hPa 0,2 l/m 0 min 2 min 160 W/m 33,5 km/h (5 Bft)
29.03.2015 13:46 10,2 C 8,9 C 96 % 998,7 hPa 0,0 l/m 0 min 2 min 173 W/m 39,7 km/h (6 Bft)
29.03.2015 13:48 10,3 C 8,9 C 96 % 998,6 hPa 0,0 l/m 0 min 2 min 156 W/m 33,5 km/h (5 Bft)
29.03.2015 13:50 10,3 C 8,9 C 96 % 998,5 hPa 0,0 l/m 0 min 2 min 165 W/m 33,5 km/h (5 Bft)
29.03.2015 13:52 10,3 C 8,9 C 96 % 998,4 hPa 0,0 l/m 0 min 2 min 173 W/m 20,9 km/h (4 Bft)
29.03.2015 13:54 10,3 C 9,4 C 96 % 998,4 hPa 0,0 l/m 0 min 2 min 209 W/m 37,7 km/h (5 Bft)
29.03.2015 13:56 10,3 C 9,4 C 96 % 998,3 hPa 0,0 l/m 0 min 2 min 222 W/m 37,7 km/h (5 Bft)
29.03.2015 13:58 10,3 C 9,4 C 96 % 998,3 hPa 0,0 l/m 0 min 2 min 186 W/m 41,8 km/h (6 Bft)
29.03.2015 14:00 10,3 C 8,9 C 96 % 998,3 hPa 0,2 l/m 0 min 2 min 195 W/m 48,1 km/h (6 Bft)
29.03.2015 14:02 10,4 C 9,4 C 96 % 998,2 hPa 0,0 l/m 0 min 2 min 165 W/m 31,4 km/h (5 Bft)
29.03.2015 14:04 10,4 C 9,4 C 96 % 998,0 hPa 0,0 l/m 0 min 2 min 212 W/m 41,8 km/h (6 Bft)
29.03.2015 14:06 10,4 C 8,9 C 96 % 998,0 hPa 0,0 l/m 0 min 2 min 181 W/m 41,8 km/h (6 Bft)
29.03.2015 14:08 10,4 C 8,9 C 96 % 997,9 hPa 0,0 l/m 0 min 2 min 132 W/m 50,2 km/h (7 Bft)
29.03.2015 14:10 10,4 C 8,9 C 96 % 998,0 hPa 0,0 l/m 0 min 2 min 169 W/m 27,2 km/h (4 Bft)
29.03.2015 14:12 10,4 C 8,9 C 96 % 997,9 hPa 0,0 l/m 0 min 2 min 130 W/m 48,1 km/h (6 Bft)
29.03.2015 14:14 10,4 C 8,9 C 96 % 997,8 hPa 0,0 l/m 0 min 2 min 131 W/m 37,7 km/h (5 Bft)
29.03.2015 14:16 10,4 C 8,9 C 96 % 997,7 hPa 0,0 l/m 0 min 2 min 203 W/m 48,1 km/h (6 Bft)
29.03.2015 14:18 10,4 C 8,9 C 95 % 997,7 hPa 0,2 l/m 0 min 2 min 184 W/m 46,0 km/h (6 Bft)
29.03.2015 14:20 10,4 C 8,9 C 95 % 997,8 hPa 0,0 l/m 0 min 2 min 160 W/m 41,8 km/h (6 Bft)
29.03.2015 14:22 10,4 C 8,9 C 95 % 997,7 hPa 0,0 l/m 0 min 2 min 162 W/m 41,8 km/h (6 Bft)
29.03.2015 14:24 10,5 C 8,9 C 96 % 997,6 hPa 0,0 l/m 0 min 2 min 152 W/m 39,7 km/h (6 Bft)
29.03.2015 14:26 10,5 C 8,9 C 95 % 997,5 hPa 0,0 l/m 0 min 2 min 126 W/m 46,0 km/h (6 Bft)
29.03.2015 14:28 10,5 C 8,9 C 95 % 997,5 hPa 0,2 l/m 0 min 2 min 149 W/m 33,5 km/h (5 Bft)
29.03.2015 14:30 10,5 C 8,9 C 95 % 997,3 hPa 0,0 l/m 0 min 2 min 118 W/m 52,3 km/h (7 Bft)
29.03.2015 14:32 10,5 C 8,9 C 95 % 997,3 hPa 0,0 l/m 0 min 2 min 67 W/m 29,3 km/h (5 Bft)
29.03.2015 14:34 10,5 C 8,9 C 95 % 997,3 hPa 0,0 l/m 0 min 2 min 81 W/m 33,5 km/h (5 Bft)
29.03.2015 14:36 10,5 C 8,9 C 95 % 997,2 hPa 0,0 l/m 0 min 2 min 88 W/m 41,8 km/h (6 Bft)
29.03.2015 14:38 10,5 C 8,9 C 95 % 997,1 hPa 0,2 l/m 0 min 2 min 90 W/m 31,4 km/h (5 Bft)
29.03.2015 14:40 10,5 C 8,9 C 95 % 997,1 hPa 0,0 l/m 0 min 2 min 98 W/m 46,0 km/h (6 Bft)
29.03.2015 14:42 10,5 C 8,9 C 95 % 997,0 hPa 0,0 l/m 0 min 2 min 66 W/m 35,6 km/h (5 Bft)
29.03.2015 14:44 10,5 C 8,9 C 95 % 997,0 hPa 0,0 l/m 0 min 2 min 106 W/m 37,7 km/h (5 Bft)
29.03.2015 14:46 10,5 C 8,9 C 95 % 996,8 hPa 0,0 l/m 0 min 2 min 135 W/m 43,9 km/h (6 Bft)
29.03.2015 14:48 10,5 C 8,9 C 95 % 996,7 hPa 0,0 l/m 0 min 2 min 161 W/m 43,9 km/h (6 Bft)
29.03.2015 14:50 10,5 C 8,9 C 95 % 996,8 hPa 0,2 l/m 0 min 2 min 184 W/m 43,9 km/h (6 Bft)
29.03.2015 14:52 10,6 C 9,4 C 95 % 996,5 hPa 0,0 l/m 0 min 2 min 187 W/m 37,7 km/h (5 Bft)
29.03.2015 14:54 10,6 C 9,4 C 95 % 996,4 hPa 0,0 l/m 0 min 2 min 169 W/m 31,4 km/h (5 Bft)
29.03.2015 14:56 10,6 C 9,4 C 95 % 996,5 hPa 0,0 l/m 0 min 2 min 193 W/m 37,7 km/h (5 Bft)
29.03.2015 14:58 10,7 C 9,4 C 95 % 996,3 hPa 0,0 l/m 0 min 2 min 244 W/m 37,7 km/h (5 Bft)
29.03.2015 15:00 10,7 C 9,4 C 95 % 996,1 hPa 0,0 l/m 0 min 2 min 203 W/m 31,4 km/h (5 Bft)
29.03.2015 15:02 10,7 C 9,4 C 95 % 996,1 hPa 0,0 l/m 0 min 2 min 185 W/m 43,9 km/h (6 Bft)
29.03.2015 15:04 10,7 C 9,4 C 95 % 996,0 hPa 0,0 l/m 0 min 2 min 207 W/m 39,7 km/h (6 Bft)
29.03.2015 15:06 10,7 C 9,4 C 95 % 995,9 hPa 0,0 l/m 0 min 2 min 204 W/m 39,7 km/h (6 Bft)
29.03.2015 15:08 10,8 C 9,4 C 95 % 996,0 hPa 0,0 l/m 0 min 2 min 186 W/m 41,8 km/h (6 Bft)
29.03.2015 15:10 10,8 C 9,4 C 95 % 995,9 hPa 0,0 l/m 0 min 2 min 181 W/m 43,9 km/h (6 Bft)
29.03.2015 15:12 10,8 C 9,4 C 95 % 995,7 hPa 0,2 l/m 0 min 2 min 186 W/m 39,7 km/h (6 Bft)
29.03.2015 15:14 10,8 C 9,4 C 95 % 995,7 hPa 0,0 l/m 0 min 0 min 185 W/m 41,8 km/h (6 Bft)
29.03.2015 15:16 10,8 C 9,4 C 95 % 995,8 hPa 0,0 l/m 0 min 2 min 139 W/m 50,2 km/h (7 Bft)
29.03.2015 15:18 10,8 C 9,4 C 95 % 995,6 hPa 0,0 l/m 0 min 2 min 115 W/m 43,9 km/h (6 Bft)
29.03.2015 15:20 10,8 C 9,4 C 95 % 995,6 hPa 0,0 l/m 0 min 2 min 124 W/m 35,6 km/h (5 Bft)
29.03.2015 15:22 10,8 C 9,4 C 95 % 995,4 hPa 0,0 l/m 0 min 2 min 139 W/m 33,5 km/h (5 Bft)
29.03.2015 15:24 10,8 C 9,4 C 95 % 995,6 hPa 0,0 l/m 0 min 2 min 162 W/m 37,7 km/h (5 Bft)
29.03.2015 15:26 10,8 C 9,4 C 95 % 995,5 hPa 0,2 l/m 0 min 2 min 150 W/m 31,4 km/h (5 Bft)
29.03.2015 15:28 10,9 C 9,4 C 95 % 995,3 hPa 0,0 l/m 0 min 2 min 145 W/m 35,6 km/h (5 Bft)
29.03.2015 15:30 10,9 C 9,4 C 95 % 995,4 hPa 0,0 l/m 0 min 2 min 152 W/m 33,5 km/h (5 Bft)
29.03.2015 15:32 10,9 C 9,4 C 95 % 995,3 hPa 0,0 l/m 0 min 0 min 142 W/m 33,5 km/h (5 Bft)
29.03.2015 15:34 10,9 C 9,4 C 95 % 995,2 hPa 0,0 l/m 0 min 2 min 110 W/m 41,8 km/h (6 Bft)
29.03.2015 15:36 10,9 C 9,4 C 95 % 995,4 hPa 0,0 l/m 0 min 2 min 90 W/m 31,4 km/h (5 Bft)
29.03.2015 15:38 10,9 C 9,4 C 95 % 995,2 hPa 0,0 l/m 0 min 2 min 109 W/m 46,0 km/h (6 Bft)
29.03.2015 15:40 10,9 C 9,4 C 95 % 995,1 hPa 0,0 l/m 0 min 2 min 104 W/m 37,7 km/h (5 Bft)
29.03.2015 15:42 10,9 C 9,4 C 95 % 995,1 hPa 0,0 l/m 0 min 2 min 101 W/m 25,1 km/h (4 Bft)
29.03.2015 15:44 10,9 C 9,4 C 95 % 995,0 hPa 0,0 l/m 0 min 2 min 90 W/m 31,4 km/h (5 Bft)
29.03.2015 15:46 10,9 C 9,4 C 95 % 995,0 hPa 0,0 l/m 0 min 2 min 89 W/m 39,7 km/h (6 Bft)
29.03.2015 15:48 10,8 C 9,4 C 95 % 994,9 hPa 0,2 l/m 0 min 2 min 79 W/m 37,7 km/h (5 Bft)
29.03.2015 15:50 10,8 C 9,4 C 95 % 994,9 hPa 0,0 l/m 0 min 2 min 81 W/m 35,6 km/h (5 Bft)
29.03.2015 15:52 10,8 C 9,4 C 95 % 994,8 hPa 0,0 l/m 0 min 2 min 67 W/m 31,4 km/h (5 Bft)
29.03.2015 15:54 10,8 C 9,4 C 95 % 994,8 hPa 0,0 l/m 0 min 2 min 66 W/m 33,5 km/h (5 Bft)
29.03.2015 15:56 10,8 C 8,9 C 95 % 994,7 hPa 0,2 l/m 0 min 2 min 68 W/m 35,6 km/h (5 Bft)
29.03.2015 15:58 10,8 C 8,9 C 95 % 994,7 hPa 0,0 l/m 0 min 2 min 67 W/m 43,9 km/h (6 Bft)
29.03.2015 16:00 10,8 C 9,4 C 95 % 994,7 hPa 0,0 l/m 0 min 2 min 77 W/m 31,4 km/h (5 Bft)
29.03.2015 16:02 10,8 C 9,4 C 95 % 994,6 hPa 0,0 l/m 0 min 2 min 85 W/m 43,9 km/h (6 Bft)
29.03.2015 16:04 10,8 C 9,4 C 95 % 994,6 hPa 0,2 l/m 0 min 2 min 74 W/m 54,4 km/h (7 Bft)
29.03.2015 16:06 10,8 C 8,9 C 95 % 994,6 hPa 0,2 l/m 0 min 2 min 56 W/m 41,8 km/h (6 Bft)
29.03.2015 16:08 10,8 C 8,9 C 95 % 994,5 hPa 0,0 l/m 0 min 2 min 46 W/m 41,8 km/h (6 Bft)
29.03.2015 16:10 10,8 C 9,4 C 95 % 994,4 hPa 0,2 l/m 0 min 2 min 62 W/m 37,7 km/h (5 Bft)
29.03.2015 16:12 10,8 C 9,4 C 95 % 994,3 hPa 0,0 l/m 0 min 2 min 70 W/m 35,6 km/h (5 Bft)
29.03.2015 16:14 10,8 C 9,4 C 95 % 994,3 hPa 0,2 l/m 0 min 2 min 75 W/m 35,6 km/h (5 Bft)
29.03.2015 16:16 10,8 C 9,4 C 95 % 994,1 hPa 0,0 l/m 0 min 2 min 53 W/m 41,8 km/h (6 Bft)
29.03.2015 16:18 10,8 C 9,4 C 95 % 994,2 hPa 0,0 l/m 0 min 2 min 48 W/m 43,9 km/h (6 Bft)
29.03.2015 16:20 10,8 C 9,4 C 95 % 994,1 hPa 0,2 l/m 0 min 2 min 52 W/m 37,7 km/h (5 Bft)
29.03.2015 16:22 10,8 C 9,4 C 95 % 994,1 hPa 0,2 l/m 0 min 2 min 58 W/m 58,6 km/h (7 Bft)
29.03.2015 16:24 10,8 C 9,4 C 95 % 994,0 hPa 0,0 l/m 0 min 2 min 71 W/m 52,3 km/h (7 Bft)
29.03.2015 16:26 10,8 C 9,4 C 96 % 993,9 hPa 0,2 l/m 0 min 2 min 77 W/m 27,2 km/h (4 Bft)
29.03.2015 16:28 10,8 C 9,4 C 96 % 994,0 hPa 0,0 l/m 0 min 2 min 81 W/m 35,6 km/h (5 Bft)
29.03.2015 16:30 10,8 C 9,4 C 96 % 993,8 hPa 0,2 l/m 0 min 2 min 79 W/m 29,3 km/h (5 Bft)
29.03.2015 16:32 10,8 C 9,4 C 96 % 993,8 hPa 0,0 l/m 0 min 2 min 68 W/m 41,8 km/h (6 Bft)
29.03.2015 16:34 10,8 C 9,4 C 96 % 993,8 hPa 0,0 l/m 0 min 2 min 87 W/m 50,2 km/h (7 Bft)
29.03.2015 16:36 10,8 C 9,4 C 96 % 993,6 hPa 0,2 l/m 0 min 2 min 105 W/m 48,1 km/h (6 Bft)
29.03.2015 16:38 10,9 C 9,4 C 96 % 993,5 hPa 0,0 l/m 0 min 2 min 139 W/m 33,5 km/h (5 Bft)
29.03.2015 16:40 10,9 C 9,4 C 96 % 993,4 hPa 0,0 l/m 0 min 2 min 161 W/m 39,7 km/h (6 Bft)
29.03.2015 16:42 10,9 C 9,4 C 96 % 993,6 hPa 0,2 l/m 0 min 2 min 156 W/m 41,8 km/h (6 Bft)
29.03.2015 16:44 10,9 C 9,4 C 96 % 993,2 hPa 0,0 l/m 0 min 2 min 118 W/m 41,8 km/h (6 Bft)
29.03.2015 16:46 10,9 C 9,4 C 96 % 993,3 hPa 0,0 l/m 0 min 2 min 124 W/m 41,8 km/h (6 Bft)
29.03.2015 16:48 11,0 C 9,4 C 96 % 993,1 hPa 0,0 l/m 0 min 2 min 116 W/m 23,0 km/h (4 Bft)
29.03.2015 16:50 11,0 C 9,4 C 96 % 993,1 hPa 0,0 l/m 0 min 2 min 87 W/m 35,6 km/h (5 Bft)
29.03.2015 16:52 11,0 C 9,4 C 96 % 993,3 hPa 0,0 l/m 0 min 2 min 66 W/m 48,1 km/h (6 Bft)
29.03.2015 16:54 11,0 C 9,4 C 96 % 993,1 hPa 0,0 l/m 0 min 2 min 43 W/m 43,9 km/h (6 Bft)
29.03.2015 16:56 11,0 C 9,4 C 96 % 993,0 hPa 0,0 l/m 0 min 2 min 42 W/m 41,8 km/h (6 Bft)
29.03.2015 16:58 10,9 C 9,4 C 96 % 993,0 hPa 0,2 l/m 0 min 2 min 53 W/m 39,7 km/h (6 Bft)
29.03.2015 17:00 10,9 C 9,4 C 96 % 993,1 hPa 0,2 l/m 0 min 2 min 56 W/m 48,1 km/h (6 Bft)
29.03.2015 17:02 10,9 C 9,4 C 96 % 993,0 hPa 0,0 l/m 0 min 2 min 62 W/m 41,8 km/h (6 Bft)
29.03.2015 17:04 10,9 C 9,4 C 96 % 992,8 hPa 0,0 l/m 0 min 2 min 67 W/m 39,7 km/h (6 Bft)
29.03.2015 17:06 10,9 C 9,4 C 96 % 992,8 hPa 0,0 l/m 0 min 2 min 63 W/m 37,7 km/h (5 Bft)
29.03.2015 17:08 10,9 C 9,4 C 96 % 992,7 hPa 0,0 l/m 0 min 2 min 62 W/m 48,1 km/h (6 Bft)
29.03.2015 17:10 10,9 C 9,4 C 96 % 992,9 hPa 0,2 l/m 0 min 2 min 53 W/m 48,1 km/h (6 Bft)
29.03.2015 17:12 10,9 C 9,4 C 96 % 992,7 hPa 0,0 l/m 0 min 2 min 39 W/m 54,4 km/h (7 Bft)
29.03.2015 17:14 10,9 C 9,4 C 96 % 992,8 hPa 0,2 l/m 0 min 2 min 46 W/m 37,7 km/h (5 Bft)
29.03.2015 17:16 10,9 C 9,4 C 96 % 992,6 hPa 0,0 l/m 0 min 2 min 49 W/m 39,7 km/h (6 Bft)
29.03.2015 17:18 10,9 C 9,4 C 96 % 992,6 hPa 0,0 l/m 0 min 2 min 48 W/m 41,8 km/h (6 Bft)
29.03.2015 17:20 10,9 C 9,4 C 96 % 992,6 hPa 0,0 l/m 0 min 2 min 47 W/m 50,2 km/h (7 Bft)
29.03.2015 17:22 10,9 C 9,4 C 96 % 992,5 hPa 0,0 l/m 0 min 2 min 50 W/m 43,9 km/h (6 Bft)
29.03.2015 17:24 10,9 C 9,4 C 96 % 992,6 hPa 0,0 l/m 0 min 2 min 47 W/m 41,8 km/h (6 Bft)
29.03.2015 17:26 10,9 C 9,4 C 96 % 992,4 hPa 0,0 l/m 0 min 2 min 59 W/m 41,8 km/h (6 Bft)
29.03.2015 17:28 10,9 C 9,4 C 96 % 992,5 hPa 0,0 l/m 0 min 2 min 53 W/m 33,5 km/h (5 Bft)
29.03.2015 17:30 10,9 C 9,4 C 96 % 992,5 hPa 0,0 l/m 0 min 2 min 55 W/m 52,3 km/h (7 Bft)
29.03.2015 17:32 10,9 C 9,4 C 96 % 992,4 hPa 0,0 l/m 0 min 2 min 48 W/m 43,9 km/h (6 Bft)
29.03.2015 17:34 10,9 C 9,4 C 96 % 992,4 hPa 0,0 l/m 0 min 2 min 48 W/m 48,1 km/h (6 Bft)
29.03.2015 17:36 10,9 C 9,4 C 96 % 992,5 hPa 0,0 l/m 0 min 2 min 44 W/m 46,0 km/h (6 Bft)
29.03.2015 17:38 10,9 C 9,4 C 96 % 992,2 hPa 0,2 l/m 0 min 2 min 47 W/m 43,9 km/h (6 Bft)
29.03.2015 17:40 10,9 C 9,4 C 96 % 992,7 hPa 0,0 l/m 0 min 2 min 46 W/m 64,9 km/h (8 Bft)
29.03.2015 17:42 10,9 C 9,4 C 96 % 992,2 hPa 0,0 l/m 0 min 2 min 43 W/m 52,3 km/h (7 Bft)
29.03.2015 17:44 10,9 C 9,4 C 96 % 992,0 hPa 0,0 l/m 0 min 2 min 37 W/m 69,0 km/h (8 Bft)
29.03.2015 17:46 10,9 C 9,4 C 96 % 992,0 hPa 0,0 l/m 0 min 2 min 44 W/m 58,6 km/h (7 Bft)
29.03.2015 17:48 10,9 C 9,4 C 96 % 992,0 hPa 0,0 l/m 0 min 2 min 38 W/m 58,6 km/h (7 Bft)
29.03.2015 17:50 10,9 C 9,4 C 96 % 992,0 hPa 0,0 l/m 0 min 2 min 35 W/m 43,9 km/h (6 Bft)
29.03.2015 17:52 10,9 C 9,4 C 96 % 992,1 hPa 0,0 l/m 0 min 2 min 31 W/m 54,4 km/h (7 Bft)
29.03.2015 17:54 10,9 C 9,4 C 96 % 991,9 hPa 0,2 l/m 0 min 2 min 35 W/m 46,0 km/h (6 Bft)
29.03.2015 17:56 10,9 C 9,4 C 96 % 992,0 hPa 0,0 l/m 0 min 2 min 40 W/m 62,8 km/h (8 Bft)
29.03.2015 17:58 10,9 C 9,4 C 96 % 991,9 hPa 0,0 l/m 0 min 2 min 48 W/m 43,9 km/h (6 Bft)
29.03.2015 18:00 10,9 C 9,4 C 96 % 991,8 hPa 0,0 l/m 0 min 2 min 48 W/m 39,7 km/h (6 Bft)
29.03.2015 18:02 10,9 C 9,4 C 96 % 991,8 hPa 0,0 l/m 0 min 2 min 37 W/m 56,5 km/h (7 Bft)
29.03.2015 18:06 10,9 C 9,4 C 96 % 991,8 hPa 0,0 l/m 0 min 2 min 28 W/m 60,7 km/h (7 Bft)
29.03.2015 18:08 10,9 C 9,4 C 96 % 992,0 hPa 0,0 l/m 0 min 2 min 26 W/m 58,6 km/h (7 Bft)
29.03.2015 18:10 10,9 C 9,4 C 96 % 991,8 hPa 0,0 l/m 0 min 2 min 25 W/m 62,8 km/h (8 Bft)
29.03.2015 18:12 10,9 C 9,4 C 96 % 991,8 hPa 0,0 l/m 0 min 2 min 31 W/m 58,6 km/h (7 Bft)
29.03.2015 18:14 10,9 C 9,4 C 96 % 991,8 hPa 0,0 l/m 0 min 2 min 29 W/m 48,1 km/h (6 Bft)
29.03.2015 18:16 10,9 C 9,4 C 96 % 991,8 hPa 0,0 l/m 0 min 2 min 28 W/m 58,6 km/h (7 Bft)
29.03.2015 18:18 10,9 C 9,4 C 96 % 991,7 hPa 0,0 l/m 0 min 2 min 26 W/m 66,9 km/h (8 Bft)
29.03.2015 18:20 10,9 C 9,4 C 96 % 991,7 hPa 0,0 l/m 0 min 2 min 25 W/m 54,4 km/h (7 Bft)
29.03.2015 18:22 10,9 C 9,4 C 96 % 991,8 hPa 0,0 l/m 0 min 2 min 26 W/m 48,1 km/h (6 Bft)
29.03.2015 18:24 10,9 C 9,4 C 96 % 991,9 hPa 0,0 l/m 0 min 2 min 27 W/m 62,8 km/h (8 Bft)
29.03.2015 18:26 10,9 C 9,4 C 96 % 991,8 hPa 0,0 l/m 0 min 2 min 22 W/m 56,5 km/h (7 Bft)
29.03.2015 18:28 10,9 C 9,4 C 96 % 991,8 hPa 0,0 l/m 0 min 2 min 21 W/m 60,7 km/h (7 Bft)
29.03.2015 18:30 10,9 C 8,9 C 96 % 991,7 hPa 0,0 l/m 0 min 2 min 20 W/m 50,2 km/h (7 Bft)
29.03.2015 18:32 10,9 C 8,9 C 96 % 991,8 hPa 0,0 l/m 0 min 2 min 20 W/m 60,7 km/h (7 Bft)
29.03.2015 18:34 10,9 C 8,9 C 96 % 992,0 hPa 0,0 l/m 0 min 2 min 21 W/m 73,2 km/h (8 Bft)
29.03.2015 18:36 10,9 C 9,4 C 96 % 991,7 hPa 0,0 l/m 0 min 2 min 25 W/m 60,7 km/h (7 Bft)
29.03.2015 18:38 10,9 C 9,4 C 96 % 991,8 hPa 0,0 l/m 0 min 2 min 19 W/m 56,5 km/h (7 Bft)
29.03.2015 18:40 10,9 C 9,4 C 96 % 991,8 hPa 0,0 l/m 0 min 2 min 18 W/m 50,2 km/h (7 Bft)
29.03.2015 18:42 10,9 C 9,4 C 96 % 991,7 hPa 0,0 l/m 0 min 2 min 17 W/m 58,6 km/h (7 Bft)
29.03.2015 18:44 10,9 C 9,4 C 96 % 991,7 hPa 0,0 l/m 0 min 2 min 16 W/m 50,2 km/h (7 Bft)
29.03.2015 18:46 10,9 C 9,4 C 96 % 991,6 hPa 0,0 l/m 0 min 2 min 14 W/m 66,9 km/h (8 Bft)
29.03.2015 18:48 10,9 C 9,4 C 96 % 991,7 hPa 0,2 l/m 0 min 2 min 18 W/m 56,5 km/h (7 Bft)
29.03.2015 18:50 10,9 C 9,4 C 95 % 991,7 hPa 0,0 l/m 0 min 2 min 13 W/m 50,2 km/h (7 Bft)
29.03.2015 18:52 10,9 C 8,9 C 95 % 991,9 hPa 0,0 l/m 0 min 2 min 13 W/m 52,3 km/h (7 Bft)
29.03.2015 18:54 10,9 C 8,9 C 95 % 991,6 hPa 0,0 l/m 0 min 2 min 15 W/m 60,7 km/h (7 Bft)
29.03.2015 18:56 10,9 C 8,9 C 95 % 991,6 hPa 0,2 l/m 0 min 2 min 14 W/m 58,6 km/h (7 Bft)
29.03.2015 18:58 10,9 C 8,9 C 95 % 991,8 hPa 0,0 l/m 0 min 2 min 11 W/m 62,8 km/h (8 Bft)
29.03.2015 19:00 10,9 C 8,9 C 95 % 991,8 hPa 0,0 l/m 0 min 2 min 10 W/m 58,6 km/h (7 Bft)
29.03.2015 19:02 10,9 C 8,9 C 95 % 991,6 hPa 0,0 l/m 0 min 2 min 12 W/m 62,8 km/h (8 Bft)
29.03.2015 19:04 10,9 C 8,9 C 95 % 991,6 hPa 0,0 l/m 0 min 0 min 12 W/m 50,2 km/h (7 Bft)
29.03.2015 19:06 10,9 C 8,9 C 95 % 991,5 hPa 0,0 l/m 0 min 0 min 14 W/m 48,1 km/h (6 Bft)
29.03.2015 19:08 10,9 C 8,9 C 95 % 991,7 hPa 0,0 l/m 0 min 2 min 14 W/m 54,4 km/h (7 Bft)
29.03.2015 19:10 10,9 C 8,9 C 95 % 991,5 hPa 0,0 l/m 0 min 2 min 13 W/m 54,4 km/h (7 Bft)
29.03.2015 19:12 10,9 C 8,9 C 95 % 991,5 hPa 0,0 l/m 0 min 2 min 12 W/m 43,9 km/h (6 Bft)
29.03.2015 19:14 10,9 C 8,9 C 95 % 991,6 hPa 0,2 l/m 0 min 2 min 11 W/m 46,0 km/h (6 Bft)
29.03.2015 19:16 10,8 C 8,9 C 95 % 991,4 hPa 0,0 l/m 0 min 2 min 12 W/m 52,3 km/h (7 Bft)
29.03.2015 19:18 10,8 C 8,9 C 95 % 991,4 hPa 0,2 l/m 0 min 2 min 12 W/m 50,2 km/h (7 Bft)
29.03.2015 19:20 10,8 C 8,9 C 95 % 991,5 hPa 0,0 l/m 0 min 2 min 12 W/m 56,5 km/h (7 Bft)
29.03.2015 19:22 10,8 C 8,9 C 95 % 991,3 hPa 0,0 l/m 0 min 2 min 16 W/m 43,9 km/h (6 Bft)
29.03.2015 19:24 10,8 C 8,9 C 95 % 991,2 hPa 0,0 l/m 0 min 2 min 16 W/m 43,9 km/h (6 Bft)
29.03.2015 19:26 10,8 C 8,9 C 95 % 991,1 hPa 0,0 l/m 0 min 2 min 12 W/m 62,8 km/h (8 Bft)
29.03.2015 19:28 10,8 C 8,9 C 95 % 991,1 hPa 0,0 l/m 0 min 2 min 11 W/m 39,7 km/h (6 Bft)
29.03.2015 19:30 10,8 C 8,9 C 95 % 991,1 hPa 0,0 l/m 0 min 2 min 9 W/m 39,7 km/h (6 Bft)
29.03.2015 19:32 10,8 C 8,9 C 95 % 991,1 hPa 0,0 l/m 0 min 2 min 8 W/m 48,1 km/h (6 Bft)
29.03.2015 19:34 10,8 C 8,9 C 95 % 991,1 hPa 0,0 l/m 0 min 0 min 6 W/m 41,8 km/h (6 Bft)
29.03.2015 19:36 10,8 C 8,9 C 95 % 991,0 hPa 0,0 l/m 0 min 0 min 5 W/m 39,7 km/h (6 Bft)
29.03.2015 19:38 10,8 C 8,9 C 94 % 991,1 hPa 0,0 l/m 0 min 0 min 5 W/m 46,0 km/h (6 Bft)
29.03.2015 19:40 10,8 C 8,9 C 94 % 991,1 hPa 0,0 l/m 0 min 2 min 3 W/m 56,5 km/h (7 Bft)
29.03.2015 19:42 10,8 C 9,4 C 94 % 991,1 hPa 0,0 l/m 0 min 2 min 0 W/m 56,5 km/h (7 Bft)
29.03.2015 19:44 10,8 C 8,9 C 94 % 991,2 hPa 0,0 l/m 0 min 0 min 0 W/m 46,0 km/h (6 Bft)
29.03.2015 19:46 10,8 C 9,4 C 94 % 991,2 hPa 0,0 l/m 0 min 0 min 0 W/m 52,3 km/h (7 Bft)
29.03.2015 19:48 10,8 C 9,4 C 94 % 991,3 hPa 0,0 l/m 0 min 0 min 0 W/m 56,5 km/h (7 Bft)
29.03.2015 19:50 10,8 C 9,4 C 94 % 991,1 hPa 0,0 l/m 0 min 0 min 0 W/m 56,5 km/h (7 Bft)
29.03.2015 19:52 10,8 C 8,9 C 94 % 991,1 hPa 0,0 l/m 0 min 0 min 0 W/m 46,0 km/h (6 Bft)
29.03.2015 19:54 10,8 C 9,4 C 94 % 991,1 hPa 0,0 l/m 0 min 0 min 0 W/m 43,9 km/h (6 Bft)
29.03.2015 19:56 10,8 C 9,4 C 94 % 991,2 hPa 0,0 l/m 0 min 2 min 0 W/m 69,0 km/h (8 Bft)
29.03.2015 19:58 10,8 C 8,9 C 93 % 991,1 hPa 0,0 l/m 0 min 2 min 0 W/m 52,3 km/h (7 Bft)
29.03.2015 20:00 10,9 C 8,9 C 93 % 991,1 hPa 0,0 l/m 0 min 2 min 0 W/m 50,2 km/h (7 Bft)
29.03.2015 20:02 10,8 C 8,9 C 93 % 991,0 hPa 0,0 l/m 0 min 2 min 0 W/m 58,6 km/h (7 Bft)
29.03.2015 20:04 10,8 C 8,9 C 93 % 991,1 hPa 0,0 l/m 0 min 2 min 0 W/m 56,5 km/h (7 Bft)
29.03.2015 20:06 10,9 C 8,9 C 92 % 991,1 hPa 0,0 l/m 0 min 2 min 0 W/m 48,1 km/h (6 Bft)
29.03.2015 20:08 10,9 C 8,9 C 92 % 991,1 hPa 0,0 l/m 0 min 2 min 0 W/m 54,4 km/h (7 Bft)
29.03.2015 20:10 10,9 C 8,9 C 92 % 991,1 hPa 0,0 l/m 0 min 2 min 0 W/m 62,8 km/h (8 Bft)
29.03.2015 20:12 10,9 C 8,9 C 92 % 991,1 hPa 0,0 l/m 0 min 2 min 0 W/m 54,4 km/h (7 Bft)
29.03.2015 20:14 10,9 C 8,9 C 92 % 991,2 hPa 0,0 l/m 0 min 2 min 0 W/m 60,7 km/h (7 Bft)
29.03.2015 20:16 10,9 C 8,3 C 92 % 991,1 hPa 0,0 l/m 0 min 2 min 0 W/m 50,2 km/h (7 Bft)
29.03.2015 20:18 10,9 C 8,3 C 92 % 991,0 hPa 0,2 l/m 0 min 2 min 0 W/m 48,1 km/h (6 Bft)
29.03.2015 20:20 10,9 C 8,3 C 92 % 991,1 hPa 0,2 l/m 0 min 2 min 0 W/m 50,2 km/h (7 Bft)
29.03.2015 20:22 10,9 C 8,3 C 92 % 991,1 hPa 0,8 l/m 0 min 2 min 0 W/m 64,9 km/h (8 Bft)
29.03.2015 20:24 10,6 C 6,7 C 91 % 992,6 hPa 1,2 l/m 0 min 2 min 0 W/m 50,2 km/h (7 Bft)
29.03.2015 20:26 10,0 C 6,1 C 90 % 992,3 hPa 0,8 l/m 0 min 2 min 0 W/m 46,0 km/h (6 Bft)
29.03.2015 20:28 9,6 C 6,1 C 89 % 992,4 hPa 0,0 l/m 0 min 2 min 0 W/m 41,8 km/h (6 Bft)
29.03.2015 20:30 9,3 C 6,1 C 89 % 992,5 hPa 0,4 l/m 0 min 2 min 0 W/m 41,8 km/h (6 Bft)
29.03.2015 20:32 9,1 C 6,1 C 90 % 992,5 hPa 0,0 l/m 0 min 2 min 0 W/m 29,3 km/h (5 Bft)
29.03.2015 20:34 9,0 C 6,1 C 90 % 992,5 hPa 0,0 l/m 0 min 2 min 0 W/m 29,3 km/h (5 Bft)
29.03.2015 20:36 8,9 C 6,7 C 91 % 992,6 hPa 0,0 l/m 0 min 2 min 0 W/m 37,7 km/h (5 Bft)
29.03.2015 20:38 8,8 C 6,7 C 91 % 992,5 hPa 0,0 l/m 0 min 0 min 0 W/m 35,6 km/h (5 Bft)
29.03.2015 20:40 8,8 C 6,7 C 91 % 992,8 hPa 0,2 l/m 0 min 2 min 0 W/m 52,3 km/h (7 Bft)
29.03.2015 20:42 8,8 C 6,7 C 92 % 992,8 hPa 0,0 l/m 0 min 2 min 0 W/m 39,7 km/h (6 Bft)
29.03.2015 20:44 8,8 C 7,2 C 92 % 992,9 hPa 0,0 l/m 0 min 2 min 0 W/m 41,8 km/h (6 Bft)
29.03.2015 20:46 8,8 C 7,2 C 92 % 993,0 hPa 0,0 l/m 0 min 0 min 0 W/m 35,6 km/h (5 Bft)
29.03.2015 20:48 8,8 C 7,2 C 93 % 992,9 hPa 0,0 l/m 0 min 2 min 0 W/m 39,7 km/h (6 Bft)
29.03.2015 20:50 8,8 C 7,2 C 93 % 992,8 hPa 0,0 l/m 0 min 0 min 0 W/m 29,3 km/h (5 Bft)
29.03.2015 20:52 8,8 C 7,2 C 93 % 992,8 hPa 0,0 l/m 0 min 0 min 0 W/m 29,3 km/h (5 Bft)
29.03.2015 20:54 8,9 C 7,2 C 93 % 992,7 hPa 0,0 l/m 0 min 2 min 0 W/m 46,0 km/h (6 Bft)
29.03.2015 20:56 8,9 C 7,2 C 94 % 992,9 hPa 0,0 l/m 0 min 0 min 0 W/m 37,7 km/h (5 Bft)
29.03.2015 20:58 8,9 C 7,8 C 94 % 992,8 hPa 0,0 l/m 0 min 0 min 0 W/m 25,1 km/h (4 Bft)
29.03.2015 21:00 8,9 C 7,2 C 94 % 993,0 hPa 0,0 l/m 0 min 0 min 0 W/m 43,9 km/h (6 Bft)
29.03.2015 21:02 9,0 C 7,2 C 94 % 993,1 hPa 0,0 l/m 0 min 0 min 0 W/m 33,5 km/h (5 Bft)
29.03.2015 21:04 9,0 C 7,2 C 94 % 993,1 hPa 0,0 l/m 0 min 0 min 0 W/m 39,7 km/h (6 Bft)
29.03.2015 21:06 9,0 C 7,2 C 94 % 993,0 hPa 0,0 l/m 0 min 0 min 0 W/m 39,7 km/h (6 Bft)
29.03.2015 21:08 9,0 C 7,2 C 94 % 992,9 hPa 0,0 l/m 0 min 0 min 0 W/m 31,4 km/h (5 Bft)
29.03.2015 21:10 9,0 C 7,2 C 94 % 993,0 hPa 0,0 l/m 0 min 2 min 0 W/m 50,2 km/h (7 Bft)
29.03.2015 21:12 9,0 C 7,2 C 94 % 993,1 hPa 0,0 l/m 0 min 0 min 0 W/m 31,4 km/h (5 Bft)
29.03.2015 21:14 9,0 C 7,2 C 94 % 993,1 hPa 0,0 l/m 0 min 0 min 0 W/m 37,7 km/h (5 Bft)
29.03.2015 21:16 9,0 C 7,2 C 94 % 993,0 hPa 0,0 l/m 0 min 0 min 0 W/m 37,7 km/h (5 Bft)
29.03.2015 21:18 9,0 C 7,2 C 94 % 993,2 hPa 0,0 l/m 0 min 0 min 0 W/m 41,8 km/h (6 Bft)
29.03.2015 21:20 9,0 C 7,2 C 94 % 993,2 hPa 0,0 l/m 0 min 0 min 0 W/m 41,8 km/h (6 Bft)
29.03.2015 21:22 9,0 C 7,2 C 94 % 993,1 hPa 0,0 l/m 0 min 0 min 0 W/m 37,7 km/h (5 Bft)
29.03.2015 21:24 9,0 C 7,2 C 94 % 993,1 hPa 0,0 l/m 0 min 0 min 0 W/m 27,2 km/h (4 Bft)
29.03.2015 21:26 9,0 C 7,2 C 94 % 993,3 hPa 0,0 l/m 0 min 0 min 0 W/m 35,6 km/h (5 Bft)
29.03.2015 21:28 9,1 C 7,8 C 94 % 993,5 hPa 0,0 l/m 0 min 0 min 0 W/m 31,4 km/h (5 Bft)
29.03.2015 21:30 9,1 C 7,8 C 94 % 993,6 hPa 0,0 l/m 0 min 0 min 0 W/m 33,5 km/h (5 Bft)
29.03.2015 21:32 9,1 C 7,2 C 94 % 993,7 hPa 0,0 l/m 0 min 0 min 0 W/m 25,1 km/h (4 Bft)
29.03.2015 21:34 9,1 C 7,8 C 94 % 993,7 hPa 0,0 l/m 0 min 0 min 0 W/m 31,4 km/h (5 Bft)
29.03.2015 21:36 9,1 C 7,8 C 94 % 993,8 hPa 0,0 l/m 0 min 0 min 0 W/m 41,8 km/h (6 Bft)
29.03.2015 21:38 9,1 C 7,8 C 94 % 993,9 hPa 0,0 l/m 0 min 0 min 0 W/m 46,0 km/h (6 Bft)
29.03.2015 21:40 9,1 C 7,8 C 94 % 993,8 hPa 0,0 l/m 0 min 0 min 0 W/m 35,6 km/h (5 Bft)
29.03.2015 21:42 9,1 C 7,2 C 93 % 993,8 hPa 0,0 l/m 0 min 0 min 0 W/m 31,4 km/h (5 Bft)
29.03.2015 21:44 9,1 C 7,2 C 93 % 993,9 hPa 0,0 l/m 0 min 0 min 0 W/m 41,8 km/h (6 Bft)
29.03.2015 21:46 9,1 C 7,8 C 93 % 993,9 hPa 0,0 l/m 0 min 2 min 0 W/m 35,6 km/h (5 Bft)
29.03.2015 21:48 9,1 C 7,2 C 93 % 994,2 hPa 0,0 l/m 0 min 2 min 0 W/m 46,0 km/h (6 Bft)
29.03.2015 21:50 9,1 C 7,2 C 93 % 994,3 hPa 0,0 l/m 0 min 2 min 0 W/m 43,9 km/h (6 Bft)
29.03.2015 21:52 8,9 C 6,1 C 92 % 994,6 hPa 0,0 l/m 0 min 2 min 0 W/m 56,5 km/h (7 Bft)
29.03.2015 21:54 8,7 C 6,1 C 91 % 994,5 hPa 0,0 l/m 0 min 2 min 0 W/m 43,9 km/h (6 Bft)
29.03.2015 21:56 8,5 C 5,6 C 90 % 994,5 hPa 0,0 l/m 0 min 2 min 0 W/m 54,4 km/h (7 Bft)
29.03.2015 21:58 8,3 C 5,6 C 90 % 994,6 hPa 0,0 l/m 0 min 2 min 0 W/m 46,0 km/h (6 Bft)
29.03.2015 22:00 8,2 C 5,6 C 90 % 994,5 hPa 0,0 l/m 0 min 2 min 0 W/m 39,7 km/h (6 Bft)
29.03.2015 22:02 8,1 C 5,6 C 90 % 994,7 hPa 0,6 l/m 0 min 2 min 0 W/m 52,3 km/h (7 Bft)
29.03.2015 22:04 8,0 C 5,6 C 90 % 994,6 hPa 0,8 l/m 0 min 2 min 0 W/m 35,6 km/h (5 Bft)
29.03.2015 22:06 7,9 C 5,6 C 90 % 994,7 hPa 0,0 l/m 0 min 2 min 0 W/m 33,5 km/h (5 Bft)
29.03.2015 22:08 7,8 C 5,6 C 90 % 994,9 hPa 0,0 l/m 0 min 2 min 0 W/m 35,6 km/h (5 Bft)
29.03.2015 22:10 7,8 C 5,6 C 91 % 994,9 hPa 0,2 l/m 0 min 2 min 0 W/m 39,7 km/h (6 Bft)
29.03.2015 22:12 7,7 C 5,6 C 91 % 994,9 hPa 0,0 l/m 0 min 2 min 0 W/m 39,7 km/h (6 Bft)
29.03.2015 22:14 7,7 C 5,6 C 91 % 995,0 hPa 0,0 l/m 0 min 2 min 0 W/m 35,6 km/h (5 Bft)
29.03.2015 22:16 7,7 C 5,6 C 92 % 995,1 hPa 0,0 l/m 0 min 0 min 0 W/m 25,1 km/h (4 Bft)
29.03.2015 22:18 7,6 C 5,6 C 92 % 995,2 hPa 0,0 l/m 0 min 2 min 0 W/m 29,3 km/h (5 Bft)
29.03.2015 22:20 7,6 C 5,6 C 92 % 995,1 hPa 0,2 l/m 0 min 2 min 0 W/m 35,6 km/h (5 Bft)
29.03.2015 22:22 7,6 C 5,6 C 92 % 995,1 hPa 0,0 l/m 0 min 2 min 0 W/m 25,1 km/h (4 Bft)
29.03.2015 22:24 7,6 C 5,6 C 93 % 995,2 hPa 0,0 l/m 0 min 2 min 0 W/m 31,4 km/h (5 Bft)
29.03.2015 22:26 7,6 C 5,6 C 93 % 995,2 hPa 0,0 l/m 0 min 2 min 0 W/m 29,3 km/h (5 Bft)
29.03.2015 22:28 7,6 C 5,6 C 93 % 995,3 hPa 0,0 l/m 0 min 2 min 0 W/m 20,9 km/h (4 Bft)
29.03.2015 22:30 7,6 C 5,6 C 93 % 995,3 hPa 0,0 l/m 0 min 0 min 0 W/m 31,4 km/h (5 Bft)
29.03.2015 22:32 7,6 C 5,6 C 93 % 995,2 hPa 0,0 l/m 0 min 0 min 0 W/m 25,1 km/h (4 Bft)
29.03.2015 22:34 7,5 C 5,6 C 93 % 995,3 hPa 0,0 l/m 0 min 0 min 0 W/m 35,6 km/h (5 Bft)
29.03.2015 22:36 7,5 C 5,6 C 94 % 995,5 hPa 0,0 l/m 0 min 2 min 0 W/m 29,3 km/h (5 Bft)
29.03.2015 22:38 7,5 C 5,6 C 94 % 995,6 hPa 0,2 l/m 0 min 2 min 0 W/m 25,1 km/h (4 Bft)
29.03.2015 22:40 7,5 C 5,6 C 94 % 995,6 hPa 0,0 l/m 0 min 2 min 0 W/m 25,1 km/h (4 Bft)
29.03.2015 22:42 7,4 C 5,6 C 94 % 995,5 hPa 0,0 l/m 0 min 2 min 0 W/m 37,7 km/h (5 Bft)
29.03.2015 22:44 7,4 C 5,6 C 94 % 995,6 hPa 0,0 l/m 0 min 2 min 0 W/m 37,7 km/h (5 Bft)
29.03.2015 22:46 7,4 C 5,6 C 94 % 995,5 hPa 0,0 l/m 0 min 0 min 0 W/m 39,7 km/h (6 Bft)
29.03.2015 22:48 7,3 C 5,6 C 94 % 995,5 hPa 0,0 l/m 0 min 0 min 0 W/m 29,3 km/h (5 Bft)
29.03.2015 22:50 7,3 C 5,6 C 94 % 995,6 hPa 0,2 l/m 0 min 0 min 0 W/m 39,7 km/h (6 Bft)
29.03.2015 22:52 7,3 C 5,6 C 94 % 995,6 hPa 0,0 l/m 0 min 0 min 0 W/m 29,3 km/h (5 Bft)
29.03.2015 22:54 7,2 C 5,6 C 94 % 995,5 hPa 0,0 l/m 0 min 0 min 0 W/m 31,4 km/h (5 Bft)
29.03.2015 22:56 7,2 C 5,6 C 94 % 995,5 hPa 0,0 l/m 0 min 0 min 0 W/m 33,5 km/h (5 Bft)
29.03.2015 22:58 7,2 C 5,6 C 94 % 995,6 hPa 0,0 l/m 0 min 0 min 0 W/m 27,2 km/h (4 Bft)
29.03.2015 23:00 7,2 C 5,6 C 94 % 995,6 hPa 0,0 l/m 0 min 0 min 0 W/m 29,3 km/h (5 Bft)
29.03.2015 23:02 7,1 C 5,6 C 94 % 995,7 hPa 0,0 l/m 0 min 0 min 0 W/m 31,4 km/h (5 Bft)
29.03.2015 23:04 7,1 C 5,6 C 94 % 995,7 hPa 0,0 l/m 0 min 0 min 0 W/m 18,8 km/h (3 Bft)
29.03.2015 23:06 7,1 C 5,6 C 94 % 995,6 hPa 0,0 l/m 0 min 0 min 0 W/m 25,1 km/h (4 Bft)
29.03.2015 23:08 7,1 C 5,6 C 94 % 995,6 hPa 0,0 l/m 0 min 0 min 0 W/m 23,0 km/h (4 Bft)
29.03.2015 23:10 7,1 C 5,6 C 94 % 995,6 hPa 0,0 l/m 0 min 0 min 0 W/m 33,5 km/h (5 Bft)
29.03.2015 23:12 7,1 C 5,6 C 94 % 995,6 hPa 0,0 l/m 0 min 0 min 0 W/m 27,2 km/h (4 Bft)
29.03.2015 23:14 7,0 C 5,6 C 94 % 995,7 hPa 0,0 l/m 0 min 0 min 0 W/m 27,2 km/h (4 Bft)
29.03.2015 23:16 7,0 C 5,6 C 94 % 995,7 hPa 0,0 l/m 0 min 0 min 0 W/m 29,3 km/h (5 Bft)
29.03.2015 23:18 7,0 C 5,6 C 94 % 995,8 hPa 0,0 l/m 0 min 0 min 0 W/m 29,3 km/h (5 Bft)
29.03.2015 23:20 7,0 C 5,6 C 94 % 995,8 hPa 0,0 l/m 0 min 0 min 0 W/m 29,3 km/h (5 Bft)
29.03.2015 23:22 7,0 C 5,6 C 94 % 995,8 hPa 0,0 l/m 0 min 0 min 0 W/m 33,5 km/h (5 Bft)
29.03.2015 23:24 7,0 C 5,6 C 94 % 995,8 hPa 0,0 l/m 0 min 0 min 0 W/m 18,8 km/h (3 Bft)
29.03.2015 23:26 7,0 C 5,6 C 94 % 995,8 hPa 0,0 l/m 0 min 0 min 0 W/m 25,1 km/h (4 Bft)
29.03.2015 23:28 7,0 C 5,6 C 94 % 995,8 hPa 0,0 l/m 0 min 0 min 0 W/m 39,7 km/h (6 Bft)
29.03.2015 23:30 7,0 C 5,6 C 94 % 995,8 hPa 0,0 l/m 0 min 0 min 0 W/m 35,6 km/h (5 Bft)
29.03.2015 23:32 7,0 C 5,6 C 94 % 995,8 hPa 0,0 l/m 0 min 0 min 0 W/m 25,1 km/h (4 Bft)
29.03.2015 23:34 7,0 C 5,6 C 94 % 995,8 hPa 0,0 l/m 0 min 0 min 0 W/m 18,8 km/h (3 Bft)
29.03.2015 23:36 7,0 C 5,0 C 94 % 995,8 hPa 0,0 l/m 0 min 0 min 0 W/m 25,1 km/h (4 Bft)
29.03.2015 23:38 7,0 C 5,6 C 94 % 995,7 hPa 0,0 l/m 0 min 0 min 0 W/m 27,2 km/h (4 Bft)
29.03.2015 23:40 7,0 C 5,6 C 94 % 995,8 hPa 0,0 l/m 0 min 0 min 0 W/m 27,2 km/h (4 Bft)
29.03.2015 23:42 7,0 C 5,0 C 94 % 995,8 hPa 0,0 l/m 0 min 0 min 0 W/m 20,9 km/h (4 Bft)
29.03.2015 23:44 7,0 C 5,0 C 94 % 995,7 hPa 0,0 l/m 0 min 0 min 0 W/m 18,8 km/h (3 Bft)
29.03.2015 23:46 6,9 C 5,0 C 94 % 995,7 hPa 0,0 l/m 0 min 0 min 0 W/m 16,7 km/h (3 Bft)
29.03.2015 23:48 6,9 C 5,0 C 94 % 995,7 hPa 0,0 l/m 0 min 0 min 0 W/m 23,0 km/h (4 Bft)
29.03.2015 23:50 6,9 C 5,0 C 94 % 995,7 hPa 0,0 l/m 0 min 0 min 0 W/m 23,0 km/h (4 Bft)
29.03.2015 23:52 6,9 C 5,6 C 94 % 995,8 hPa 0,0 l/m 0 min 0 min 0 W/m 29,3 km/h (5 Bft)
29.03.2015 23:54 6,9 C 5,6 C 94 % 995,8 hPa 0,0 l/m 0 min 0 min 0 W/m 23,0 km/h (4 Bft)
29.03.2015 23:56 6,9 C 5,6 C 94 % 995,8 hPa 0,0 l/m 0 min 0 min 0 W/m 23,0 km/h (4 Bft)
29.03.2015 23:58 6,9 C 5,0 C 94 % 995,9 hPa 0,0 l/m 0 min 0 min 0 W/m 20,9 km/h (4 Bft)
_ Min-Zeit 23:24 23:36 07:36 19:36 - - - - 10:40
Minimum _ 6,9 C 5,0 C 82 % 991,0 hPa - - - - 16,7 km/h (3 Bft)
_ Max-Zeit 00:24 00:00 00:00 00:00 20:24 00:00 01:12 14:58 18:34
Maximum _ 11,4 C 9,4 C 97 % 1007,5 hPa 1,2 l/m 0 min 2 min 244 W/m 73,2 km/h
W (8 Bft)
Durchschnitt _ 10,1 C 8,4 C 92 % 1000,1 hPa #14,4 l/m #0 min. #12:28 h 79 W/m 37,7 km/h (5 Bft)
© 2015 W. Hausmann